GFSNE_sfc_thetae_021.txt.gz
Theta_e
319 316 315 316 318 318 316 315 313 311 309 319 321 327 330 330 334 331 330 326 326 324 324 322 323 324 324 324 326 326 327 327 328 329 330 330 328 325
320 320 317 317 317 317 317 316 315 313 312 320 321 325 329 329 332 329 328 326 323 322 322 322 320 320 320 322 323 324 324 325 325 325 326 325 323 320
320 321 320 320 318 318 318 316 315 314 314 318 321 326 324 322 321 323 325 323 322 321 321 319 317 317 318 319 319 320 321 321 321 321 320 319 318 317
320 321 321 322 317 317 316 317 316 316 316 316 319 320 318 318 319 319 321 321 321 320 318 316 315 315 315 315 315 315 315 315 316 316 316 315 315 314
320 321 322 320 319 321 321 319 318 319 320 318 316 318 317 317 317 318 317 317 319 321 317 315 314 314 314 313 312 311 309 308 308 310 311 312 312 311
322 323 323 323 321 321 320 319 319 319 319 316 315 315 316 316 315 313 312 316 316 319 318 315 314 313 313 312 312 311 307 305 305 305 305 305 305 306
323 323 322 323 321 319 319 319 319 318 318 314 314 314 314 314 313 314 313 314 315 316 314 314 313 311 311 312 314 310 306 304 303 303 302 301 301 301
321 322 321 318 315 313 314 314 318 318 317 316 314 313 314 315 315 314 313 312 309 315 312 307 310 305 305 306 307 304 303 302 302 301 300 299 299 298
323 321 321 319 317 316 310 310 310 310 315 318 315 315 314 315 315 314 313 312 311 311 310 303 303 300 301 303 303 302 301 300 300 299 299 298 297 296
322 321 320 319 318 319 319 319 319 319 320 321 320 318 317 318 317 316 313 311 311 306 305 301 300 297 296 297 301 301 299 298 298 298 298 297 296 295
322 323 322 320 304 306 319 317 317 315 309 306 306 305 303 305 312 315 311 310 307 303 302 297 296 294 293 294 296 300 299 298 298 298 297 297 295 295
320 318 308 314 301 304 319 318 315 315 316 316 313 308 309 306 307 314 313 308 306 303 304 297 295 294 292 293 294 295 295 298 297 297 297 297 296 291
319 317 313 299 301 302 309 319 315 315 311 316 313 312 312 312 311 312 312 311 304 302 304 299 296 295 294 292 292 293 292 291 293 293 296 295 295 294
319 318 309 298 299 300 309 299 301 308 314 313 313 311 311 310 310 310 310 310 309 309 306 302 298 298 296 292 291 292 291 291 291 291 290 293 295 295
319 310 297 295 296 299 298 299 306 316 314 311 310 308 310 312 313 312 311 311 309 311 309 304 302 300 299 297 296 292 291 292 292 290 290 289 291 291
305 306 305 305 303 303 306 310 318 315 315 313 310 310 311 312 313 313 312 310 309 306 304 305 305 303 301 300 300 295 294 295 292 293 291 291 292 291
312 314 317 316 314 314 314 314 315 314 314 312 310 311 312 312 312 312 310 307 308 304 302 298 297 300 297 302 300 299 297 296 295 293 293 292 293 293
315 317 317 317 316 316 316 312 313 312 313 313 311 312 313 313 312 312 310 309 307 305 302 296 295 295 294 294 299 299 297 296 295 295 294 293 293 293
312 315 316 316 317 317 318 317 315 316 315 316 314 312 313 313 309 313 311 309 307 305 302 295 295 298 296 299 293 293 297 294 292 292 294 293 293 293
312 313 313 314 317 317 316 316 315 313 315 315 314 313 313 313 311 312 313 312 308 305 302 298 295 295 302 304 298 289 289 291 292 292 289 286 286 289
312 313 314 315 316 316 316 316 316 315 316 315 316 316 316 315 315 315 315 304 306 307 307 305 305 293 293 292 291 288 287 290 293 294 289 288 288 289
313 314 315 314 315 316 316 317 316 312 314 316 317 318 318 317 317 316 316 315 311 313 311 308 295 293 292 294 297 288 285 285 290 294 294 293 292 291
316 316 315 316 316 316 316 316 316 316 316 316 316 317 317 316 318 318 318 317 317 312 310 299 292 291 292 293 291 283 285 284 286 287 290 292 292 292

GFSNE_sfc_thetae_024.txt.gz
Theta_e
322 321 320 320 322 321 322 322 320 313 314 320 323 331 332 334 335 333 331 326 326 324 324 324 324 324 325 325 326 327 327 327 328 328 328 330 330 326
323 322 320 321 321 323 322 321 321 319 314 322 323 327 332 333 334 332 331 326 323 322 323 322 320 321 322 322 322 323 324 325 325 326 327 326 324 322
323 324 323 323 322 322 322 321 321 321 317 321 325 326 323 323 326 327 328 325 323 321 322 320 318 318 319 319 319 321 322 322 322 322 322 321 320 319
324 324 324 324 323 323 322 321 321 322 320 319 320 318 319 321 321 321 322 324 322 321 319 317 316 315 315 315 316 316 315 316 317 317 317 317 317 316
324 324 324 323 322 322 322 321 322 323 324 319 315 317 318 319 318 319 318 318 320 320 317 316 315 314 313 313 312 311 310 309 309 311 313 314 314 313
325 325 325 323 322 322 322 321 322 321 319 316 314 314 315 317 317 315 315 317 316 319 317 316 316 314 312 312 312 311 307 306 305 306 306 306 306 308
325 325 325 323 321 321 322 321 322 319 317 315 313 312 312 312 312 314 313 315 315 316 315 315 315 314 313 313 315 312 307 305 304 304 303 302 302 302
322 322 322 318 316 312 314 315 319 319 316 314 313 312 312 313 314 313 312 311 309 317 311 308 312 308 312 315 308 305 304 304 303 303 301 300 300 299
322 321 319 318 318 317 310 311 310 311 314 317 314 314 314 315 314 313 313 313 310 312 312 304 307 306 306 307 303 302 302 301 301 300 300 299 298 297
322 320 319 318 318 320 320 319 320 319 319 320 318 318 318 318 317 316 314 313 310 309 313 304 303 303 303 306 302 301 300 299 299 299 299 298 296 296
322 321 321 319 303 306 319 317 316 314 308 305 305 303 302 304 311 315 313 311 309 308 307 307 303 302 302 303 304 301 299 298 298 298 298 297 296 295
320 318 308 313 300 305 319 317 315 315 316 316 313 309 310 308 308 317 317 312 310 309 310 308 303 302 302 302 302 304 303 299 298 297 297 297 296 299
318 316 313 299 299 301 309 320 315 317 312 316 315 315 315 318 318 318 320 315 312 313 311 308 304 302 304 302 301 302 302 301 301 299 296 296 295 297
318 317 306 297 297 299 309 299 302 311 317 315 315 314 315 316 317 317 318 318 317 317 311 312 306 306 305 302 302 301 301 301 300 300 300 297 295 295
320 306 296 295 296 299 297 299 305 317 318 316 316 315 317 317 317 317 317 317 316 316 310 312 309 307 308 308 307 302 300 301 301 300 300 298 297 298
305 307 303 303 302 304 309 315 319 318 318 317 315 315 317 317 317 318 316 316 315 315 313 313 312 311 308 309 309 307 303 304 301 301 300 300 298 298
311 316 318 316 315 316 318 319 318 318 316 315 315 316 317 317 318 320 319 316 315 314 314 310 308 312 311 312 308 309 309 306 306 303 299 298 299 299
317 317 317 317 316 316 317 317 318 315 317 317 317 317 316 316 318 319 319 319 318 317 316 311 307 307 307 308 308 311 310 309 309 304 301 299 300 301
319 318 317 318 317 317 318 318 318 319 319 318 317 316 317 318 314 319 319 318 317 318 317 310 307 309 310 311 309 296 308 309 307 303 303 301 300 300
320 318 318 319 319 320 320 319 319 319 320 319 318 318 318 318 317 318 319 319 319 318 316 311 306 307 311 313 313 305 289 304 303 304 301 293 291 289
318 318 320 319 320 321 320 319 320 320 320 320 320 320 319 319 319 319 319 304 309 319 317 317 316 296 309 303 304 305 297 290 298 303 296 293 293 296
318 319 319 320 320 320 319 318 318 317 319 320 321 321 321 321 320 319 319 318 316 319 319 321 309 305 303 304 309 311 302 295 294 295 295 296 296 296
318 319 320 319 320 321 321 320 320 320 321 321 321 321 322 320 322 322 321 321 321 320 319 319 309 303 305 305 305 311 301 296 295 294 295 292 292 293

GFSNE_sfc_thetae_030.txt.gz
Theta_e
337 336 336 337 330 332 327 325 322 315 319 328 334 342 346 342 335 339 342 325 325 323 324 325 326 326 325 326 326 327 328 329 329 329 329 327 327 329
334 335 336 335 332 324 327 326 326 326 320 334 336 339 342 340 336 342 340 328 324 323 324 322 321 322 323 322 323 325 326 325 326 327 327 327 329 327
335 334 334 335 332 330 330 334 335 333 327 331 334 335 336 338 339 338 336 334 327 322 322 320 318 318 318 320 321 321 322 323 323 324 325 324 324 324
333 333 332 333 334 335 338 335 335 338 334 326 324 325 329 335 334 331 331 331 329 323 320 318 317 315 316 316 316 317 317 318 319 320 320 320 321 322
334 333 332 334 334 335 336 334 334 337 336 325 320 322 323 327 325 325 325 324 324 322 317 315 314 314 314 314 314 313 312 312 312 313 315 317 318 318
335 335 334 334 335 334 334 334 336 335 330 323 319 320 319 321 321 318 317 320 319 321 317 317 316 313 313 313 314 314 310 308 308 308 309 309 310 311
335 335 336 331 323 329 333 334 333 329 325 320 318 318 316 317 316 318 317 318 318 320 321 321 321 321 319 316 318 314 309 307 306 307 306 305 304 305
333 333 335 327 322 316 316 318 328 330 326 321 317 315 316 315 317 317 316 314 312 320 316 314 322 318 320 323 312 307 306 306 306 305 304 303 302 302
329 329 330 327 326 328 312 311 312 311 320 327 318 318 318 320 319 317 317 315 315 316 318 309 318 315 319 313 306 305 304 304 304 304 303 302 301 299
329 329 330 328 327 328 328 327 327 328 328 326 324 322 321 321 323 319 319 315 317 317 318 307 316 320 321 321 305 304 303 302 302 302 301 300 299 298
323 327 328 327 306 307 327 323 321 319 309 309 308 304 302 305 314 320 315 313 311 313 319 313 312 317 321 320 318 304 303 302 302 301 301 300 298 297
324 324 309 316 300 305 326 322 318 318 318 315 313 308 311 309 308 318 316 313 314 314 323 318 318 319 317 323 323 317 314 301 301 300 300 299 298 303
319 319 316 299 299 302 311 324 317 318 312 317 316 316 316 318 320 322 322 322 319 320 323 324 321 321 321 319 321 322 320 315 311 305 297 298 297 299
319 318 307 298 298 301 311 299 301 310 318 316 315 315 316 319 322 327 331 329 329 328 327 328 324 322 319 317 316 320 320 320 318 314 313 304 296 296
321 304 297 297 297 301 299 300 304 318 317 316 316 318 321 324 328 327 330 330 329 328 326 328 324 324 322 320 319 319 317 319 319 318 318 316 315 310
306 310 308 309 308 311 312 311 325 324 321 322 323 324 326 326 325 326 325 324 323 321 325 326 327 326 321 321 322 322 322 320 323 321 320 320 320 319
320 322 322 321 320 320 321 323 327 325 325 326 325 325 324 325 326 326 324 321 319 320 319 322 326 327 325 326 322 324 325 326 328 327 324 321 323 323
322 323 323 323 322 324 324 325 327 322 326 326 326 326 324 323 323 324 323 320 319 321 321 322 322 321 323 325 320 325 327 327 329 329 329 324 323 325
322 324 323 323 323 324 325 325 325 327 330 328 327 327 326 326 322 322 321 320 319 321 323 325 325 323 320 319 327 314 327 327 327 327 328 327 325 326
322 323 325 326 327 327 327 328 327 328 328 328 327 327 326 324 321 321 322 322 322 323 325 327 327 326 324 323 323 327 298 328 326 325 325 328 325 300
326 325 326 326 328 329 329 329 329 329 328 327 327 326 326 324 322 321 322 308 312 324 323 325 327 304 330 329 324 323 326 299 314 326 326 324 323 323
327 327 327 328 329 330 330 330 330 328 329 329 328 327 326 325 324 324 324 323 323 323 324 326 328 329 328 325 323 324 324 329 303 298 296 302 320 318
330 331 331 331 331 330 331 330 329 330 330 329 329 329 329 327 327 327 326 326 326 325 326 325 326 326 325 325 319 326 327 327 328 320 314 296 295 296

GFSNE_sfc_thetae_033.txt.gz
Theta_e
338 337 337 333 337 333 332 329 328 319 322 329 331 337 343 341 336 338 338 326 326 323 324 325 325 326 327 327 327 328 327 328 329 328 328 327 326 328
339 337 337 334 336 333 328 327 328 329 322 328 328 338 342 344 334 342 339 328 323 323 324 323 321 322 322 323 323 325 326 325 326 326 327 327 329 330
337 335 334 336 332 331 331 334 329 330 327 325 334 340 338 340 339 339 335 336 328 322 322 321 319 319 319 320 321 322 323 323 324 324 324 326 327 327
334 335 332 333 335 338 336 335 332 337 328 326 330 330 336 338 335 334 332 332 330 322 319 318 316 316 317 317 317 317 317 319 319 321 322 322 323 324
333 334 332 334 335 337 334 337 337 337 335 329 323 325 329 330 327 328 328 325 324 322 318 316 315 314 315 315 314 314 313 313 313 314 317 318 319 320
337 336 333 334 335 336 336 336 337 335 332 325 322 321 322 324 324 320 318 321 320 321 319 317 318 314 313 314 315 315 311 309 309 310 310 311 311 313
335 334 336 333 326 330 337 338 337 333 326 321 319 319 318 319 318 320 317 317 317 319 319 323 322 322 321 317 319 316 310 308 307 308 307 306 306 307
333 334 335 328 323 314 315 319 331 331 325 321 320 317 318 318 319 318 316 315 312 321 319 319 322 323 324 323 314 308 307 307 306 306 305 304 304 303
333 334 333 331 328 330 313 313 314 315 322 329 320 319 318 320 319 317 317 317 314 316 318 314 321 319 317 312 308 306 305 305 305 305 304 303 302 300
331 333 333 331 329 329 330 330 329 330 330 328 326 324 323 322 322 321 319 317 318 318 318 311 317 315 317 320 307 306 304 303 303 303 303 302 300 299
329 330 330 328 309 308 328 326 324 321 309 307 306 305 303 307 315 320 315 314 311 314 319 316 317 317 319 322 317 306 304 303 303 303 302 301 299 299
324 325 305 321 303 306 325 323 319 318 318 318 317 314 314 310 309 322 318 314 312 311 318 318 319 319 316 324 321 317 314 303 302 301 301 301 299 305
319 322 324 300 301 304 312 325 318 320 313 318 317 317 318 319 320 322 320 317 316 317 321 323 319 319 322 320 322 324 320 318 313 308 299 299 298 300
321 320 309 298 299 302 312 299 302 311 318 316 315 314 316 317 318 319 320 327 328 329 327 329 322 323 322 321 319 325 325 325 318 316 314 305 297 297
323 307 297 296 297 302 299 300 307 318 316 315 314 315 317 319 322 326 327 329 332 332 329 332 328 329 326 321 320 321 320 323 325 323 321 320 316 308
306 311 309 308 306 308 309 314 320 320 319 317 316 318 320 322 325 328 327 326 323 324 330 331 332 333 324 325 325 324 323 319 325 324 324 324 324 323
317 321 320 318 317 316 317 320 322 321 321 321 321 322 324 324 324 326 325 322 320 319 322 324 327 330 329 331 322 322 324 326 328 328 327 324 326 326
321 323 321 321 320 322 324 324 325 321 325 325 325 324 324 324 325 326 325 322 319 321 319 321 322 321 322 325 321 325 327 328 331 332 332 328 328 331
323 323 322 322 323 323 324 325 324 327 328 326 325 326 326 325 321 322 321 320 318 320 322 325 323 319 316 315 324 314 326 328 330 329 330 329 328 331
324 323 324 325 326 327 326 326 327 326 327 326 325 326 327 323 322 321 321 320 320 320 321 324 324 324 323 322 323 328 301 331 331 330 329 329 327 304
324 325 326 326 326 327 328 326 326 326 326 326 327 327 327 326 324 323 321 308 312 321 320 323 328 305 332 332 326 327 331 301 318 330 329 326 324 326
327 327 328 327 329 329 329 328 328 327 327 327 327 326 326 325 322 321 320 320 321 321 323 326 330 331 329 326 325 327 329 331 312 305 303 308 322 319
329 330 329 330 330 330 329 328 328 327 328 328 328 327 327 325 326 325 324 323 323 323 325 324 326 327 326 326 319 326 329 329 329 328 329 301 301 300

GFSNE_sfc_thetae_036.txt.gz
Theta_e
335 335 332 333 333 331 329 327 321 315 316 322 325 329 328 329 331 333 332 327 326 323 324 325 326 327 327 328 328 329 329 327 325 328 327 327 326 326
335 333 333 332 333 331 329 326 326 321 316 323 324 328 331 329 332 333 330 326 323 323 324 323 322 323 323 324 324 325 326 325 325 326 326 326 326 328
334 331 333 333 331 331 328 328 325 324 320 323 327 328 329 330 331 329 332 327 325 323 323 321 319 319 320 321 321 322 323 323 323 324 324 324 326 328
332 331 332 334 331 330 330 326 326 326 323 321 325 327 327 330 332 331 329 329 325 322 320 318 317 317 317 318 318 318 317 319 319 320 321 323 324 325
332 330 331 331 329 329 330 327 327 329 326 324 322 325 327 328 326 326 324 323 323 322 318 317 316 315 316 316 316 315 313 313 313 315 318 319 321 322
333 331 331 331 330 330 329 329 329 327 326 322 322 321 322 323 323 320 318 321 319 322 320 318 316 315 314 315 315 315 312 309 310 310 311 312 313 314
331 332 331 330 326 329 333 331 329 327 323 320 319 318 319 319 318 319 316 317 318 320 319 320 320 319 316 316 318 316 311 309 308 308 308 307 307 308
328 330 327 320 317 316 318 322 327 325 321 319 318 316 318 319 319 317 316 315 312 321 319 319 322 320 321 321 314 310 308 307 307 307 306 305 304 304
331 330 331 329 327 326 312 314 315 314 319 323 318 318 317 319 319 317 317 316 314 317 318 315 319 318 319 315 309 307 306 305 305 305 305 304 303 301
332 331 331 330 328 328 329 328 327 325 325 326 323 321 321 321 321 320 318 316 317 318 318 312 316 315 313 314 308 306 305 303 304 304 304 302 301 300
325 324 329 327 308 308 326 322 319 316 308 307 308 306 304 306 315 319 315 314 312 313 316 314 314 314 315 315 310 306 304 303 303 303 303 302 300 299
325 322 306 315 305 309 325 321 317 317 318 317 314 309 311 310 309 320 318 314 312 311 316 313 314 315 312 318 314 307 306 303 302 302 302 302 300 301
321 321 315 300 302 304 311 321 316 318 313 319 317 318 318 319 319 320 319 317 314 313 316 319 316 315 315 314 316 314 312 310 306 304 300 300 299 300
321 317 310 297 299 301 310 300 302 311 317 316 315 316 316 317 318 318 319 319 320 320 319 319 316 316 314 315 313 317 315 315 311 310 310 304 298 298
320 303 296 296 297 300 298 300 306 317 316 314 314 315 317 318 318 317 319 321 323 324 321 320 322 319 318 318 317 316 316 318 318 313 314 312 307 301
306 312 306 304 307 307 310 313 318 318 316 315 315 317 318 318 319 319 318 322 321 321 324 323 324 325 321 320 317 319 316 314 318 318 318 316 315 313
315 317 316 314 313 315 318 319 318 318 317 317 317 317 318 319 321 323 323 322 318 318 320 323 324 324 323 321 318 318 317 316 317 318 316 315 317 318
319 317 316 315 315 316 317 319 319 317 319 319 318 319 319 320 321 323 323 319 317 316 319 320 318 316 317 319 318 317 319 319 319 321 322 319 319 321
322 319 318 319 320 322 320 321 320 322 324 322 321 322 322 322 316 321 322 321 317 316 316 318 317 316 311 311 316 311 317 318 319 319 321 321 321 323
323 320 321 322 322 324 323 324 323 324 324 323 323 323 323 323 322 322 319 317 316 315 315 319 317 316 314 313 314 319 302 319 319 320 322 323 321 313
323 323 324 324 325 325 325 325 325 325 324 324 323 323 324 324 321 319 319 308 310 317 316 316 319 303 322 321 318 319 323 300 315 322 321 321 320 320
325 323 326 326 324 325 325 323 323 321 324 324 324 323 324 324 322 321 320 318 317 317 317 319 322 324 322 320 318 318 320 323 308 304 306 312 319 314
327 328 327 327 327 327 328 327 326 326 325 326 325 326 325 322 323 322 322 319 317 317 318 317 318 319 318 318 311 317 318 320 322 323 323 304 303 303

GFSNE_sfc_thetae_042.txt.gz
Theta_e
325 323 321 322 321 320 319 317 313 307 308 316 318 324 327 328 327 330 327 326 326 323 323 324 326 327 328 328 329 329 329 329 328 328 327 328 327 326
324 322 322 322 323 322 321 318 316 312 309 316 319 323 324 327 330 329 328 325 323 322 324 323 322 323 324 324 325 326 327 326 325 324 326 326 326 326
323 323 323 325 322 321 319 317 316 315 312 315 318 322 323 325 324 326 326 325 323 322 323 322 320 320 321 321 322 322 322 322 321 323 323 323 324 324
323 323 324 327 324 321 318 316 315 317 315 314 318 323 323 324 325 324 325 326 325 322 320 319 318 317 317 318 318 318 317 317 318 320 320 320 321 324
324 324 323 325 323 319 317 316 316 320 320 319 320 324 323 323 321 322 321 321 323 323 318 317 316 316 316 316 316 314 313 312 312 314 316 317 319 322
326 326 326 326 321 321 319 317 318 318 320 322 321 321 320 321 320 319 317 320 320 322 320 319 317 316 315 315 316 315 311 309 309 309 310 311 313 315
325 326 327 327 323 321 321 319 319 317 321 321 319 319 318 318 316 318 316 317 318 319 319 320 321 320 317 316 320 317 311 309 308 308 308 308 308 309
321 322 322 322 320 315 317 317 321 320 319 317 317 317 317 317 318 317 317 316 312 321 319 317 321 319 319 320 312 309 308 307 307 307 307 306 306 305
321 322 325 323 318 320 311 313 312 311 316 316 317 318 318 318 319 317 318 315 314 318 319 315 319 318 319 316 307 306 306 305 306 306 305 305 304 303
322 325 324 322 320 321 321 319 319 318 317 319 318 318 319 320 320 320 317 316 318 317 318 313 316 313 316 311 307 306 304 304 304 304 304 303 302 301
322 324 324 320 304 306 319 316 314 314 308 308 309 306 305 307 314 319 316 315 312 312 315 314 313 312 313 313 312 306 304 304 304 304 304 303 302 300
316 316 309 313 300 305 318 316 316 315 316 315 313 307 309 310 308 318 317 314 312 311 314 313 312 313 309 311 313 311 310 304 303 303 303 303 301 303
316 316 313 300 300 302 309 318 315 317 312 317 317 317 317 316 318 319 319 317 312 310 312 314 311 311 310 310 313 312 310 306 305 304 301 300 300 302
316 314 307 298 298 301 308 299 301 310 318 317 316 315 316 317 317 318 318 317 317 315 316 316 313 313 312 310 310 308 306 307 305 307 307 304 300 299
316 304 297 296 296 299 297 299 305 317 317 315 315 316 317 317 317 317 318 318 319 319 318 317 315 315 313 312 311 308 308 309 309 309 308 307 308 305
303 306 305 305 304 305 309 312 317 318 317 316 315 316 316 316 315 316 315 316 316 317 317 317 316 313 310 310 311 310 310 310 309 310 311 311 310 310
312 315 314 314 314 315 315 315 316 316 316 316 315 315 315 315 314 315 315 314 314 314 314 314 313 314 314 312 310 311 312 310 312 311 309 311 313 313
314 313 313 314 314 315 314 314 315 313 316 316 316 316 315 313 313 315 316 315 312 313 312 312 311 310 311 313 315 315 311 313 315 313 310 309 313 316
315 313 313 314 315 316 316 315 314 316 316 316 316 316 315 317 313 315 315 314 312 311 311 312 311 310 306 307 312 308 315 315 313 309 312 311 313 315
314 314 314 313 313 312 313 312 313 313 314 314 314 316 317 317 316 314 314 313 313 312 310 310 311 313 310 309 309 309 299 315 309 311 310 311 312 306
316 313 313 314 316 316 315 315 315 314 314 315 316 317 317 315 314 314 314 304 306 312 310 308 313 303 316 313 309 311 315 299 309 312 310 310 312 315
319 318 318 320 321 320 319 318 316 316 317 317 318 320 318 316 315 317 317 316 313 314 314 316 311 308 308 312 311 311 313 315 308 301 303 308 316 314
319 320 320 320 321 321 321 319 320 320 320 321 320 320 321 320 321 321 321 319 316 313 312 311 308 309 309 310 307 311 311 312 314 315 315 303 300 302

GFSNE_sfc_thetae_045.txt.gz
Theta_e
325 323 321 321 323 319 316 315 313 307 307 312 316 323 325 326 327 326 324 326 325 322 323 324 326 327 327 328 328 329 329 330 329 327 328 329 328 327
326 322 320 320 319 318 318 316 314 311 307 312 316 322 325 324 329 326 325 326 323 322 323 322 323 323 324 324 325 326 327 326 325 325 326 327 327 327
322 321 321 321 320 319 317 315 314 313 310 313 318 323 323 325 325 326 326 325 323 322 324 321 320 320 321 322 322 323 323 323 322 322 324 324 324 325
322 321 321 324 319 319 319 315 314 314 313 312 318 321 321 323 324 324 324 326 325 322 320 318 317 317 318 318 319 319 318 318 318 320 320 321 322 323
322 321 322 322 320 318 316 314 314 317 316 316 319 322 322 322 321 322 321 322 323 323 318 316 316 316 316 316 316 315 313 312 312 314 315 317 319 320
323 323 322 322 324 321 317 315 316 317 320 321 320 319 319 320 320 319 317 320 319 321 319 317 316 316 315 315 316 316 311 309 309 309 310 311 311 314
322 324 324 325 322 321 318 315 316 317 320 319 318 318 317 317 317 318 316 317 318 319 319 320 320 320 317 316 320 317 311 309 308 308 308 307 307 309
320 322 322 323 320 314 315 315 318 320 320 318 315 317 317 317 318 317 317 317 313 321 318 317 321 319 320 322 313 310 309 308 307 307 307 306 306 305
319 319 321 323 321 318 311 312 311 311 316 318 318 317 316 318 318 317 317 314 314 318 319 314 319 317 319 315 309 307 306 305 306 306 305 305 304 303
319 320 320 320 320 320 319 317 316 317 317 319 319 317 317 319 319 319 313 317 317 317 318 312 316 313 316 316 307 306 304 304 305 305 304 304 302 301
320 322 323 322 306 304 318 316 313 312 307 307 308 305 304 306 314 317 314 316 313 313 316 314 313 313 314 313 312 306 304 304 304 304 304 303 302 301
318 316 307 313 301 303 318 317 315 314 314 314 314 308 309 310 308 320 318 316 312 312 315 313 312 313 312 313 313 310 308 304 303 302 303 303 302 304
316 315 310 298 297 299 306 316 314 314 311 316 316 316 316 316 318 319 319 317 312 312 315 315 312 311 309 307 310 313 313 312 309 306 301 301 300 302
315 312 306 298 298 300 308 297 300 310 318 317 316 315 315 316 317 318 318 317 318 316 315 316 313 312 311 308 308 311 310 308 306 307 307 305 301 299
316 305 297 296 297 299 297 299 305 318 317 315 314 315 317 317 317 317 318 318 319 317 318 317 315 315 315 313 312 309 306 307 307 308 307 307 308 305
304 306 304 303 303 303 310 313 317 318 317 316 315 315 316 316 316 317 315 316 315 314 317 317 316 315 311 312 312 310 309 309 308 307 308 309 308 308
312 315 314 314 314 314 315 315 316 317 316 316 315 315 315 315 314 316 315 315 313 313 310 314 315 315 311 309 308 308 309 309 311 311 307 308 312 312
314 314 313 314 314 314 313 314 315 313 315 316 315 316 315 314 314 315 315 313 312 314 314 314 311 309 309 312 314 313 312 312 314 311 309 308 312 316
314 314 313 314 315 315 314 314 314 315 316 316 316 315 315 315 311 314 315 314 313 313 313 312 310 309 304 307 311 308 313 313 312 308 310 309 312 314
314 314 314 312 315 315 314 314 315 315 316 316 316 316 315 317 315 313 313 311 310 309 308 308 309 309 309 309 307 309 300 314 309 310 310 308 310 305
313 313 315 314 312 313 313 314 315 314 314 314 315 316 317 316 316 312 310 301 303 310 309 310 313 299 314 312 308 311 314 299 309 311 308 307 309 310
317 316 315 316 317 317 317 316 315 312 315 315 316 317 318 315 312 312 312 312 311 312 313 315 311 307 309 310 311 310 311 313 303 301 302 306 312 309
317 319 318 317 320 319 319 319 317 318 318 318 318 318 317 317 318 318 318 316 314 313 313 315 310 307 307 309 307 311 311 312 313 314 315 305 301 301

GFSNE_sfc_thetae_048.txt.gz
Theta_e
332 331 329 329 329 327 325 324 323 317 316 320 323 327 329 331 330 330 331 326 325 322 322 323 325 327 328 327 329 330 330 330 330 328 329 331 330 329
330 328 326 326 325 324 323 323 323 321 317 319 323 324 327 329 331 329 329 327 322 322 322 322 322 324 324 324 325 326 326 325 325 325 327 328 328 327
328 327 326 326 324 324 323 323 321 321 319 320 324 327 325 326 327 327 328 328 327 322 320 321 320 320 320 321 322 323 323 323 322 323 325 325 325 326
326 325 325 326 325 324 324 322 322 321 320 318 322 323 322 325 326 324 326 328 327 323 320 318 317 317 317 318 318 318 318 318 319 320 321 321 323 324
327 326 325 326 324 323 323 322 321 322 322 320 320 323 323 323 322 322 324 325 326 322 317 316 316 317 316 317 317 315 314 313 312 314 316 318 319 320
327 327 326 327 325 324 322 321 321 322 323 322 321 319 320 322 322 319 319 322 322 322 319 317 316 315 315 316 317 316 312 310 308 309 310 311 311 313
326 326 328 326 322 323 322 321 323 323 321 320 318 318 318 318 318 320 319 320 321 323 321 322 320 320 319 317 320 319 311 309 308 308 308 307 307 308
325 326 328 323 319 315 314 314 322 324 321 320 319 317 318 318 320 318 318 316 316 322 320 318 322 319 321 323 314 310 308 307 307 307 307 306 305 303
325 325 325 326 322 322 310 310 311 312 317 322 321 320 317 320 321 319 320 320 318 320 321 316 320 317 322 317 309 308 308 306 306 306 305 305 304 300
324 325 326 324 324 321 319 320 321 323 323 323 325 324 323 323 324 324 322 320 318 319 321 315 317 315 319 317 307 306 305 304 305 305 304 304 302 300
323 325 324 323 305 306 321 319 318 316 308 308 309 306 303 306 315 322 319 316 313 316 319 317 315 316 318 318 315 306 304 304 304 304 304 303 302 301
322 319 308 314 299 302 322 319 317 316 317 318 316 309 309 309 308 325 322 317 315 314 319 318 316 317 314 317 318 318 315 304 303 302 303 303 301 317
320 317 313 298 299 300 308 321 316 316 312 319 317 317 317 318 321 323 325 322 319 316 319 320 318 317 315 312 317 317 317 317 319 315 301 301 300 306
319 317 307 296 297 298 308 298 301 310 319 318 317 316 316 318 319 321 322 319 321 323 321 323 318 319 313 312 313 316 314 316 317 316 319 311 301 300
316 306 296 295 296 299 297 298 304 319 318 316 316 316 318 319 319 319 319 321 320 319 320 320 320 317 317 316 316 315 312 313 313 316 318 317 317 317
305 308 304 303 302 304 311 315 319 320 318 317 316 317 318 317 317 318 317 318 317 318 319 320 320 319 314 315 315 313 314 316 317 315 316 318 319 319
312 316 315 315 314 315 316 317 318 319 318 317 316 316 316 316 316 318 318 317 315 315 317 318 320 319 317 316 313 313 315 316 318 318 318 319 323 323
315 315 314 315 314 314 314 315 317 314 317 317 317 317 316 315 314 315 316 315 313 316 317 319 317 315 317 319 315 318 319 318 321 322 321 318 320 324
315 314 314 315 315 315 315 315 315 317 318 317 317 317 316 316 313 314 315 317 316 314 315 316 315 314 313 311 319 309 319 320 320 320 320 319 318 322
315 314 314 316 316 316 316 316 316 316 318 319 317 317 317 317 314 315 315 313 313 314 314 315 316 317 317 316 316 320 300 321 319 319 319 320 318 307
316 315 316 317 317 317 317 317 317 316 316 317 316 317 318 317 316 316 314 303 306 316 316 317 319 300 321 320 316 318 323 298 313 321 320 316 316 318
316 316 317 317 318 319 318 317 317 316 316 315 316 317 318 318 316 319 318 317 316 317 317 320 320 318 318 317 317 319 320 321 307 300 301 306 316 313
309 311 310 311 314 319 318 318 317 317 317 318 319 318 318 317 320 320 320 319 320 320 320 320 320 315 314 315 310 316 316 316 318 319 321 306 301 301

GFSNE_sfc_thetae_051.txt.gz
Theta_e
342 341 337 336 335 336 337 335 331 324 325 329 330 330 333 336 336 338 337 325 326 323 323 324 326 328 329 329 330 330 331 331 331 332 332 332 332 331
339 337 337 339 340 337 336 335 333 329 325 330 330 330 333 337 335 338 337 329 323 323 323 323 322 323 323 324 325 326 327 327 327 327 329 329 329 329
340 341 340 339 336 335 334 333 331 330 325 327 328 330 328 332 333 334 333 336 334 322 321 320 320 319 320 322 322 323 324 324 323 324 326 326 326 327
338 338 337 335 336 335 333 334 333 332 329 327 325 326 327 328 328 330 329 334 336 324 320 318 316 316 317 318 318 319 318 318 319 321 322 322 324 325
333 335 337 336 335 334 334 333 331 331 331 327 324 326 325 326 325 327 328 329 329 322 317 316 315 315 316 317 317 315 312 312 313 314 317 319 320 322
335 339 336 336 335 335 333 333 331 330 329 326 324 322 323 325 325 321 324 328 326 326 321 319 317 316 316 316 316 316 312 310 310 310 311 311 313 315
338 337 338 334 327 330 332 332 332 329 326 323 322 320 320 320 321 324 323 324 324 325 325 325 324 324 321 318 321 319 312 310 308 308 308 307 307 309
336 336 336 325 323 315 316 318 328 329 325 322 320 320 321 322 323 322 321 322 320 326 324 322 326 323 324 326 316 312 310 308 308 307 307 306 305 305
336 336 335 334 328 332 312 312 314 313 320 331 323 320 321 323 324 322 324 324 322 323 325 319 322 322 324 321 311 310 307 306 306 306 306 305 304 301
336 336 337 336 333 332 328 328 330 331 330 330 333 327 326 326 329 327 326 325 324 325 328 317 320 320 322 322 309 308 306 305 306 305 305 304 303 300
334 335 335 334 307 305 329 329 330 327 309 305 309 308 306 309 320 327 324 320 316 320 328 322 320 317 320 321 317 307 305 304 304 305 304 304 302 302
329 329 308 324 300 303 326 329 325 324 326 327 325 315 315 316 308 329 325 319 317 317 327 322 319 321 319 323 324 322 324 305 304 303 303 303 302 322
328 326 324 299 297 300 310 327 324 324 319 329 328 325 325 323 325 327 330 326 323 323 324 328 322 321 326 323 323 323 328 326 326 320 301 301 301 308
323 323 314 297 297 299 312 298 301 312 326 323 322 321 322 323 325 329 331 331 333 330 329 329 327 325 324 321 317 324 323 329 327 326 325 316 300 300
327 311 296 295 296 301 298 300 302 325 322 320 318 319 321 324 326 327 328 326 327 327 326 328 326 324 323 321 317 320 322 323 318 319 324 323 322 323
305 308 305 308 305 308 312 316 326 324 322 320 320 321 322 322 322 323 320 322 323 324 324 327 328 328 322 319 321 322 323 320 322 321 320 320 323 326
315 320 322 319 319 320 322 322 323 324 322 322 322 321 320 320 320 321 321 322 319 318 319 322 326 326 322 324 315 316 318 318 320 323 323 323 325 328
318 318 318 318 318 318 319 320 322 317 322 321 321 320 318 319 318 320 323 321 319 317 319 323 324 323 322 319 317 322 323 321 322 324 326 323 324 326
316 318 317 318 318 318 319 319 318 320 322 320 321 320 320 318 314 315 316 318 317 316 320 321 321 316 311 316 326 309 323 325 326 325 327 326 325 327
317 315 318 319 319 319 318 318 319 320 320 320 321 321 321 317 316 315 316 320 322 316 315 315 316 317 320 319 321 325 300 326 326 325 325 327 325 308
317 316 321 321 320 319 319 321 320 322 322 323 324 320 320 319 317 317 316 302 305 316 316 318 321 302 326 327 323 324 329 299 314 326 326 323 323 325
318 320 319 319 320 322 323 322 321 319 321 320 319 319 319 319 317 318 318 319 321 322 322 325 327 327 325 324 323 324 326 329 310 300 300 304 318 317
312 313 313 315 319 324 323 322 321 324 318 319 319 319 321 319 321 322 325 325 325 324 325 325 327 328 325 324 315 320 322 322 319 319 318 300 300 301

GFSNE_sfc_thetae_054.txt.gz
Theta_e
350 349 347 345 344 341 339 336 338 329 327 336 335 339 340 339 337 340 340 327 328 324 324 325 326 328 329 330 331 331 332 333 334 334 335 334 333 331
350 349 349 345 342 342 340 338 336 332 325 333 335 336 337 337 335 339 339 331 326 325 325 324 323 324 325 326 326 327 328 327 328 329 330 330 330 329
350 348 346 345 341 347 341 338 336 335 328 335 335 334 334 336 336 338 337 340 335 322 323 321 320 320 321 321 322 324 325 325 325 326 327 328 328 328
347 346 342 343 344 345 340 340 337 337 331 332 329 329 332 333 334 333 335 340 339 324 320 319 317 317 317 319 319 319 319 319 320 322 323 323 325 326
344 344 343 343 342 341 339 336 335 335 334 333 328 330 329 329 327 332 334 333 335 324 318 316 315 316 316 317 317 316 314 313 314 315 318 320 321 323
346 343 342 342 340 339 337 337 336 333 332 331 329 328 327 327 327 326 326 331 328 332 324 322 318 316 316 317 317 317 312 310 310 311 312 312 314 316
342 340 343 337 329 332 335 337 336 332 330 330 325 325 325 322 325 325 326 328 328 331 330 329 328 326 323 318 321 318 312 310 309 310 309 309 308 310
341 341 341 329 327 319 319 320 328 336 334 329 325 325 325 327 327 326 325 325 321 329 327 325 328 326 326 331 318 311 309 309 309 308 307 306 306 306
341 340 337 335 331 336 316 315 317 317 321 334 328 327 324 327 329 327 326 329 325 329 330 321 325 325 327 324 311 309 308 307 307 307 306 306 304 303
339 339 339 338 337 335 334 333 333 333 334 334 336 333 329 333 332 330 332 328 330 330 334 323 322 323 324 324 309 309 308 306 305 306 306 305 303 302
338 339 338 337 314 307 335 332 332 332 312 307 309 311 309 309 321 331 327 323 321 325 332 328 325 321 326 322 319 308 305 304 306 306 305 304 303 303
337 337 308 325 302 303 336 334 330 331 331 330 331 319 319 321 311 334 330 322 323 321 329 328 324 324 322 328 326 322 320 307 305 305 305 305 303 322
331 332 330 300 300 301 310 331 330 331 325 332 330 329 331 331 329 332 332 327 325 323 327 332 327 328 329 325 329 327 331 327 327 320 302 303 302 309
331 332 322 297 298 299 312 299 306 312 334 331 329 327 327 327 328 330 332 333 334 331 334 334 330 326 327 325 325 328 330 329 329 329 329 317 302 301
332 308 297 295 297 303 297 299 303 326 330 325 326 326 327 328 331 332 333 333 333 333 333 335 334 333 331 325 325 325 325 328 332 325 322 328 326 326
307 314 309 311 307 312 314 313 330 328 329 326 323 324 326 327 327 329 327 327 326 327 332 332 332 332 327 326 326 324 325 321 328 327 323 322 326 325
320 324 325 326 324 326 327 327 327 327 325 326 325 324 323 324 324 327 326 324 323 325 324 329 331 332 330 330 320 317 318 319 323 324 320 320 325 324
324 325 323 324 324 325 324 324 325 321 324 325 326 325 323 322 322 324 325 323 323 323 325 325 326 324 324 321 320 326 326 325 326 326 325 323 323 329
323 323 321 322 323 323 323 323 322 324 326 325 324 324 323 323 321 319 325 324 320 323 322 321 323 323 320 317 324 311 325 327 325 327 328 327 326 328
319 321 320 321 322 322 322 322 323 322 323 323 324 324 323 324 319 317 316 316 318 319 322 321 321 322 320 319 319 326 300 329 327 327 326 328 326 309
318 320 323 322 323 322 322 322 322 322 322 323 323 324 324 321 320 318 319 304 309 317 317 319 320 301 322 324 324 324 327 300 314 328 327 326 325 326
318 320 323 323 322 322 323 323 323 323 325 326 325 324 321 324 320 320 321 319 316 317 322 325 327 328 325 324 323 324 327 325 310 301 300 304 321 319
322 322 322 322 324 325 326 323 323 323 323 322 321 319 322 324 326 325 324 325 326 327 326 327 329 331 328 326 316 320 317 317 314 317 310 299 300 300

GFSNE_sfc_thetae_057.txt.gz
Theta_e
356 358 351 349 349 347 347 340 333 332 332 339 340 342 340 340 336 342 340 329 328 325 325 325 326 326 327 330 331 332 333 334 334 336 334 336 336 335
350 354 351 350 349 347 344 340 338 339 331 335 342 343 340 338 338 339 340 329 327 326 325 324 323 324 325 326 326 328 329 329 328 328 331 332 332 330
354 352 351 353 346 343 344 342 344 341 332 339 341 338 336 338 339 339 339 339 332 324 325 323 321 321 322 322 322 324 325 325 325 327 328 328 327 324
351 350 349 347 347 348 347 345 339 338 333 334 335 333 334 335 337 336 338 341 339 323 321 319 318 316 317 317 318 319 319 321 322 323 324 324 325 326
351 350 347 346 347 343 344 344 338 335 336 333 335 332 333 333 332 335 337 338 334 324 320 317 315 315 315 316 316 316 316 315 315 316 319 321 322 324
351 348 346 345 343 344 343 340 338 337 337 335 334 329 329 330 328 329 330 337 331 332 324 322 318 315 314 315 317 317 313 312 311 312 313 314 315 317
350 346 347 341 333 335 336 342 342 335 335 338 333 329 327 325 326 327 329 330 330 332 330 331 332 329 322 318 321 318 312 310 309 310 310 310 309 311
345 344 344 332 329 319 323 318 330 339 337 335 327 326 328 327 331 329 331 325 323 332 329 325 331 327 326 328 317 310 309 309 309 309 309 307 307 307
346 345 340 337 332 336 319 317 319 318 323 338 333 331 330 331 330 330 329 330 330 329 330 322 327 324 328 324 311 307 307 308 307 308 307 306 305 304
343 342 342 340 336 335 334 331 332 334 333 333 337 335 334 335 335 335 333 333 334 331 336 322 325 323 325 324 309 307 306 306 306 306 306 305 303 302
339 339 338 337 317 307 335 332 333 333 313 309 313 311 311 314 322 335 330 327 324 327 332 328 324 323 324 322 317 308 306 305 306 305 306 305 303 303
338 338 314 329 303 303 337 336 332 333 331 332 330 320 321 322 311 335 335 326 323 322 332 328 325 325 322 328 327 319 316 306 305 305 306 305 304 319
332 334 332 301 300 301 305 339 331 334 323 333 331 329 330 331 330 334 337 329 325 323 328 331 327 326 328 327 328 328 327 325 324 318 303 303 302 309
332 333 322 298 299 302 316 304 306 315 335 335 332 329 328 328 330 333 336 334 332 331 335 335 332 331 328 328 326 330 330 332 328 328 328 316 302 301
327 310 299 297 298 306 299 301 308 326 328 330 329 331 331 330 331 334 334 336 334 333 333 334 335 334 332 328 327 325 328 330 334 333 330 331 323 322
310 320 316 313 307 316 316 318 330 330 328 328 329 330 330 328 328 333 329 330 329 327 332 333 334 333 331 331 329 328 327 323 332 332 330 330 329 324
324 326 327 327 326 327 328 329 331 329 327 329 327 325 324 325 326 329 327 327 324 327 325 328 331 333 335 332 327 327 326 322 322 323 323 322 324 324
325 326 325 325 325 326 327 327 326 322 327 327 327 325 323 323 324 325 326 325 324 324 325 330 327 326 327 328 322 326 328 326 327 327 325 322 320 324
328 327 325 326 325 325 325 325 325 326 327 326 326 326 325 324 322 323 325 323 323 325 326 327 326 325 321 319 327 308 324 324 327 325 327 326 324 326
328 324 324 325 325 325 325 324 325 326 326 325 326 325 325 323 323 323 323 323 322 322 323 322 323 322 318 320 321 326 302 325 328 327 324 328 306 302
322 325 324 325 324 324 324 324 324 324 323 325 325 326 325 325 323 324 319 305 309 322 322 322 321 301 323 322 319 321 323 300 310 318 323 323 324 323
319 322 324 324 324 324 323 323 323 322 323 326 326 325 326 325 321 324 322 323 322 319 318 323 326 325 323 321 322 324 325 322 307 301 300 306 315 311
321 322 322 323 323 324 325 324 325 325 326 326 325 325 322 319 323 321 324 323 324 322 323 321 322 329 327 325 316 321 319 316 313 315 318 300 300 300

GFSNE_sfc_thetae_060.txt.gz
Theta_e
352 350 351 347 345 347 344 340 333 324 327 332 332 337 338 337 332 336 338 330 329 325 324 324 325 327 328 329 330 331 332 333 335 335 337 336 335 334
351 349 348 348 348 346 344 341 339 332 326 331 334 336 337 335 335 334 335 329 327 325 325 324 323 323 324 324 325 327 328 329 328 331 330 331 333 333
349 347 348 347 348 345 344 341 337 335 328 329 335 335 332 333 334 334 334 333 327 325 325 323 321 320 321 322 323 324 325 324 325 326 328 328 329 329
347 347 347 348 347 345 343 340 336 337 332 326 330 330 329 331 331 331 334 335 331 323 321 319 318 316 318 318 317 318 318 320 321 323 324 324 325 326
348 347 347 347 344 343 342 339 336 337 334 330 329 330 329 329 326 329 330 331 330 322 319 317 316 316 315 315 315 315 313 314 315 317 319 320 321 321
349 349 348 345 343 342 340 339 336 334 333 330 329 328 326 326 326 324 323 328 326 326 321 320 319 315 314 315 316 315 312 311 311 313 314 314 315 317
350 349 347 342 336 339 340 337 335 332 332 328 326 326 325 323 320 324 323 325 325 328 327 326 324 323 318 317 321 317 312 310 309 310 311 310 310 312
346 345 339 327 325 321 318 319 332 333 329 328 326 323 324 323 325 324 324 323 318 329 324 322 327 325 322 325 316 310 309 309 309 309 309 308 308 308
345 344 338 337 331 329 318 318 316 316 325 331 327 326 325 326 326 325 325 323 323 324 325 319 325 322 326 322 310 306 307 307 308 308 308 307 306 305
345 343 341 338 336 334 331 331 331 330 330 331 332 331 330 331 329 329 326 325 326 326 327 315 322 320 323 322 308 306 305 305 306 306 307 306 303 302
342 342 340 338 317 311 332 329 329 325 311 310 314 311 312 315 322 329 325 323 321 322 326 321 320 319 321 320 316 307 305 305 306 306 306 305 303 303
339 329 314 330 304 305 334 331 329 327 327 327 325 316 318 316 312 329 327 321 319 318 326 322 320 320 317 324 321 315 313 306 305 305 304 304 303 309
332 335 324 301 299 300 308 332 327 328 321 329 328 327 328 328 328 329 330 327 321 319 326 326 322 321 320 319 322 323 320 317 314 310 302 303 302 307
332 332 311 298 299 303 313 302 304 314 330 328 325 325 325 326 327 329 329 329 329 327 327 328 324 323 320 319 319 323 323 323 323 322 322 313 302 301
329 310 298 298 299 303 298 300 307 328 326 324 324 325 327 328 328 328 329 329 329 329 332 329 327 324 323 320 319 320 321 325 326 324 325 323 319 314
309 313 312 310 308 312 315 317 328 326 324 324 323 327 327 327 324 328 325 326 324 324 329 329 329 326 322 323 322 320 322 321 325 326 327 326 327 322
321 323 324 324 324 323 325 327 328 326 325 325 325 324 324 324 325 326 325 324 321 321 322 326 326 328 327 324 320 322 322 321 322 320 321 320 321 323
323 323 323 324 323 324 325 326 326 322 326 326 325 324 322 321 322 323 324 322 320 321 321 323 324 323 322 325 322 321 322 321 323 323 322 318 319 321
326 325 324 325 324 324 326 325 322 325 325 325 325 324 323 323 319 321 321 321 320 320 321 322 321 319 315 313 322 310 320 321 321 321 323 321 318 317
327 325 325 325 325 324 324 323 325 325 324 324 324 323 324 323 320 320 320 319 319 318 319 319 319 318 316 315 316 320 299 320 320 320 321 315 304 299
325 324 325 325 324 324 325 324 324 323 323 323 323 324 324 322 320 320 318 303 305 319 318 319 320 303 320 320 315 317 316 299 310 314 315 316 314 311
323 322 324 324 324 324 323 323 322 322 322 323 324 325 325 323 320 320 321 320 319 319 317 319 323 322 320 317 316 319 318 316 306 303 300 306 310 306
320 322 323 322 322 322 322 322 322 322 325 325 324 321 322 321 323 322 321 321 322 320 320 319 320 321 320 319 310 310 308 309 308 306 311 301 300 300

GFSNE_sfc_thetae_063.txt.gz
Theta_e
338 339 333 341 338 337 336 332 326 318 320 326 327 331 332 331 332 332 333 330 328 325 324 323 324 326 327 328 329 330 331 332 334 334 336 337 337 337
336 346 346 345 341 338 336 332 329 326 320 325 327 329 330 332 333 330 331 328 326 324 324 323 322 322 324 324 325 326 327 328 327 329 331 333 334 333
346 347 346 341 340 338 334 332 330 328 323 323 327 328 326 328 329 330 331 328 325 323 323 322 320 320 320 320 320 322 324 325 324 325 327 328 329 330
347 345 344 345 341 338 333 332 330 329 325 321 323 324 324 324 326 325 329 332 325 323 321 319 317 315 317 317 317 318 317 318 320 322 324 325 326 329
346 342 343 342 340 337 331 330 329 331 328 324 322 323 322 323 321 323 325 322 325 321 318 316 315 316 316 316 315 316 312 313 314 316 319 321 322 324
345 343 341 343 340 335 334 332 330 328 326 324 321 320 319 320 320 318 319 322 319 324 319 318 318 317 315 315 316 316 311 310 311 312 313 313 314 317
343 344 342 340 334 336 335 332 328 325 323 321 319 318 317 316 314 317 318 319 320 322 318 319 319 319 318 316 320 318 311 310 310 311 311 310 309 310
340 340 339 330 327 324 322 326 327 325 321 319 318 317 317 317 318 318 317 316 313 326 322 321 325 323 322 323 316 310 309 309 311 310 309 308 308 308
339 334 332 331 325 324 317 315 315 318 322 323 320 320 318 320 320 318 321 317 316 319 321 318 323 321 324 322 310 307 307 307 308 308 307 307 306 305
338 333 331 326 325 324 324 323 323 323 324 328 324 324 324 324 323 322 321 320 321 321 319 312 321 319 323 323 308 306 305 305 306 307 307 306 305 304
337 334 332 330 312 311 326 324 321 318 309 309 315 311 310 312 320 323 319 320 318 318 322 315 314 318 321 320 318 307 304 304 305 306 306 306 304 303
330 326 318 328 304 305 325 322 319 318 320 320 319 314 316 314 313 323 321 319 316 314 320 316 314 319 315 320 321 315 312 305 304 304 304 304 303 311
327 323 318 304 301 301 312 324 321 321 318 323 322 320 321 320 321 322 324 322 318 315 320 320 315 315 315 317 318 318 318 314 313 310 302 303 302 308
327 321 307 298 298 300 312 304 301 313 324 323 321 321 320 319 321 323 323 323 324 322 322 322 317 316 314 313 314 316 317 320 319 319 319 311 301 301
326 309 297 297 298 301 298 298 303 323 322 320 319 321 320 322 321 321 322 323 323 324 327 324 321 320 317 315 314 316 319 319 321 320 320 320 319 315
305 308 308 308 308 306 310 313 322 323 323 322 322 323 323 320 318 319 319 319 318 319 323 325 324 322 317 317 317 315 318 317 321 323 322 322 324 322
315 318 319 317 316 316 317 320 322 323 321 323 323 322 321 319 319 320 319 317 315 316 318 323 322 323 322 320 315 316 317 318 320 322 321 321 322 324
318 318 317 317 317 316 317 318 319 319 322 323 322 321 320 320 321 321 318 316 314 316 320 318 321 318 318 319 318 317 317 317 320 322 320 318 316 317
319 318 318 318 318 320 318 318 317 318 321 322 322 321 320 320 318 319 318 315 316 316 316 321 319 316 311 309 317 309 319 319 320 319 320 317 317 311
320 319 319 319 319 318 318 319 321 321 321 320 321 321 321 319 316 315 317 317 315 313 314 318 315 314 314 313 312 316 293 315 318 316 316 307 299 296
318 319 319 318 318 318 319 321 321 320 318 321 321 321 320 317 316 314 315 303 304 313 312 314 317 299 316 317 312 314 315 302 307 312 311 311 306 306
320 321 318 318 317 318 319 320 318 317 316 320 319 318 318 319 316 317 315 314 312 313 316 317 317 316 317 315 313 315 316 314 304 302 299 303 307 305
318 318 319 319 319 319 320 319 319 318 319 318 318 320 320 315 317 319 316 316 316 318 316 318 317 315 311 309 305 304 304 302 299 298 300 302 300 301

GFSNE_sfc_thetae_069.txt.gz
Theta_e
334 334 331 329 326 327 328 327 323 317 322 325 326 328 329 329 331 329 328 328 328 324 322 322 323 324 325 326 327 329 330 331 332 334 335 337 338 337
332 329 327 329 328 327 327 328 328 324 323 325 325 326 327 329 331 328 329 328 326 324 324 322 321 321 321 322 323 325 326 327 327 328 330 332 333 334
329 329 328 329 329 332 331 331 332 331 327 323 323 325 324 324 326 326 327 326 325 322 323 321 319 318 318 320 321 322 323 324 324 325 326 327 328 330
331 333 332 332 329 332 339 337 333 329 325 322 322 322 322 323 323 323 326 327 322 320 317 315 314 313 313 316 315 315 315 316 316 320 321 322 324 328
334 334 334 335 335 338 337 335 329 328 325 321 320 321 320 321 319 319 320 319 321 320 317 315 314 314 314 314 313 314 312 312 311 313 318 318 321 323
336 337 339 337 338 337 335 334 328 327 324 322 320 318 319 318 317 315 316 323 316 321 318 317 317 317 315 316 318 318 314 311 311 311 311 312 313 316
333 338 342 340 330 334 337 330 328 325 322 320 317 315 315 317 314 314 314 317 315 317 318 319 319 319 319 317 321 320 315 311 309 308 309 308 308 310
327 333 337 331 329 321 321 321 328 326 322 319 316 317 315 315 313 314 314 316 317 319 318 316 317 316 319 322 315 312 310 308 308 308 308 307 306 305
325 329 333 338 327 334 316 314 316 315 319 324 319 318 316 317 315 313 314 313 313 314 315 317 322 320 322 322 311 308 307 306 306 306 306 306 304 303
323 326 331 335 332 331 327 327 325 322 321 325 324 322 320 319 319 318 317 314 314 316 315 312 315 313 322 323 310 308 306 305 305 306 305 304 302 302
324 328 333 335 317 307 329 326 322 319 310 308 309 310 308 308 315 319 315 314 311 313 315 313 314 312 317 319 319 308 306 305 305 305 305 304 302 301
324 329 312 325 305 303 328 324 320 318 320 318 317 311 309 308 307 321 318 314 311 311 316 315 313 311 310 313 317 316 314 304 303 303 303 303 302 312
325 328 324 305 301 303 310 324 320 319 314 319 317 317 317 316 318 319 319 318 313 312 315 316 310 310 310 312 318 319 318 315 313 310 301 301 301 307
325 327 323 299 300 300 308 305 301 310 318 316 315 314 315 316 318 319 320 319 319 318 317 317 313 312 310 309 310 316 317 318 317 317 317 309 301 300
322 320 307 298 298 302 305 300 304 319 317 315 314 314 315 317 317 317 317 318 318 320 321 319 317 313 312 311 311 312 317 314 319 318 319 319 318 315
305 307 307 308 305 311 306 306 320 321 319 317 314 316 317 316 315 316 315 315 315 315 319 320 318 317 313 313 312 311 312 313 318 319 319 319 320 320
311 312 316 317 316 316 316 318 321 320 318 317 319 319 318 316 316 316 314 313 312 312 314 320 321 317 316 314 312 311 311 312 313 316 319 318 321 321
315 318 319 319 318 318 319 319 321 318 318 320 322 320 316 316 317 314 314 313 311 311 312 315 319 317 313 312 309 313 313 313 315 317 317 315 316 312
318 319 318 317 316 317 319 320 319 321 321 321 321 319 317 318 315 315 314 312 311 313 311 315 317 315 309 309 313 301 312 313 314 316 312 307 311 305
320 317 316 315 315 315 315 314 316 317 318 318 317 318 317 319 317 316 316 315 315 314 310 311 314 313 310 308 308 312 294 312 312 312 312 307 300 296
317 316 316 315 315 316 315 316 317 317 316 316 316 316 318 318 315 313 309 300 306 312 309 313 312 295 312 312 307 311 310 297 302 307 304 303 303 304
317 316 316 316 317 317 316 317 315 314 315 316 316 318 318 316 313 312 310 309 308 309 313 315 315 312 313 311 305 304 302 301 297 296 295 297 297 294
316 316 317 317 317 317 317 317 318 317 319 319 318 316 316 312 313 313 312 312 311 311 311 310 307 306 303 299 296 294 294 294 294 292 289 293 293 293

GFSNE_sfc_thetae_072.txt.gz
Theta_e
337 335 334 334 329 330 331 328 327 321 322 333 334 335 336 336 336 337 335 328 328 324 323 322 323 323 324 325 326 328 329 331 332 334 336 336 338 339
336 335 333 331 331 330 329 328 330 326 323 334 335 333 333 333 335 335 335 329 324 323 323 322 320 320 321 321 323 324 326 327 327 328 330 331 333 335
333 332 331 330 328 330 330 330 330 330 325 332 329 331 331 332 333 333 334 333 330 320 320 317 314 316 316 318 320 322 323 324 324 325 326 327 329 330
332 333 332 333 329 330 331 330 330 331 329 327 329 328 329 330 331 331 331 330 328 320 316 315 313 313 313 313 313 313 312 313 314 317 319 321 323 327
333 334 334 335 332 330 330 331 335 334 333 329 327 326 327 327 326 327 328 327 325 321 318 316 315 315 315 314 314 314 312 311 311 312 315 318 321 322
332 335 336 338 337 335 335 336 333 331 328 328 325 325 325 325 325 325 324 327 326 324 319 318 317 317 317 317 318 318 314 312 313 310 310 311 313 315
327 331 335 335 331 334 341 340 332 332 328 326 323 322 321 320 324 323 322 324 324 324 322 322 322 323 323 319 322 319 315 313 311 309 307 310 308 309
323 325 329 327 329 320 319 320 330 331 329 326 324 322 322 324 322 321 322 321 321 325 323 324 325 325 327 326 315 312 310 310 309 308 308 307 305 304
321 323 325 329 326 335 323 314 315 313 320 329 326 326 325 324 322 320 322 324 323 323 325 322 326 326 328 326 312 309 307 306 306 306 306 306 304 303
321 323 324 326 329 331 336 332 329 327 326 329 332 329 331 327 327 326 326 324 324 324 325 322 322 324 327 328 310 308 306 305 305 306 305 304 303 302
323 325 326 328 317 306 331 331 328 324 314 309 311 308 307 308 317 326 323 323 322 323 323 323 321 321 320 322 325 308 306 306 306 306 305 304 302 301
323 325 309 317 307 301 327 330 324 324 321 320 319 313 311 310 307 331 326 323 321 321 325 323 318 321 319 323 324 322 319 306 303 304 305 304 302 318
321 323 327 306 302 298 306 329 325 322 317 324 325 323 320 319 323 327 329 328 323 323 323 325 321 320 321 320 322 322 321 320 319 316 301 301 301 309
319 323 326 304 298 297 306 304 301 312 323 321 322 322 321 323 325 327 327 328 328 328 325 328 323 323 322 320 321 322 321 322 321 320 322 313 301 299
314 314 302 298 296 302 299 299 304 322 320 321 322 322 324 325 326 326 327 327 328 328 326 326 327 323 323 322 322 323 319 325 323 320 321 322 321 319
307 312 308 304 304 309 307 309 322 322 322 323 322 323 323 323 324 325 325 325 325 325 327 327 328 327 324 324 323 323 323 323 324 322 321 321 322 323
312 312 314 315 313 316 317 317 321 321 323 322 322 322 322 323 323 324 323 323 323 322 323 325 326 325 319 322 323 323 323 324 325 325 322 321 314 312
313 315 315 319 319 318 317 318 321 318 323 324 324 324 322 321 322 321 321 323 321 320 322 325 324 320 318 315 310 317 323 323 323 321 320 319 314 311
317 318 317 320 321 320 320 320 320 323 324 324 325 324 320 322 320 320 321 321 319 320 322 324 322 318 314 314 315 300 318 320 319 320 317 315 312 305
316 320 319 319 321 320 321 321 322 321 323 324 324 321 322 321 320 320 319 319 319 317 317 321 319 317 315 314 312 304 292 311 315 312 312 312 307 297
316 319 319 318 320 320 320 320 320 320 321 322 321 320 321 319 317 318 315 305 309 315 315 318 317 296 320 320 307 298 296 293 298 298 302 308 309 301
318 318 318 319 320 321 322 322 319 320 321 322 322 323 323 321 317 315 316 318 319 318 317 319 319 320 317 310 300 299 299 298 295 294 293 294 297 294
318 319 319 320 321 322 322 322 322 322 323 323 322 322 320 317 317 318 319 319 319 319 316 308 305 301 298 297 293 293 293 294 294 293 291 292 291 293

GFSNE_sfc_thetae_075.txt.gz
Theta_e
338 343 343 343 345 343 342 338 331 326 326 334 335 346 347 346 345 347 345 327 328 326 325 324 324 325 326 326 327 329 330 332 334 335 336 337 339 339
343 344 343 341 342 341 337 337 334 330 324 334 338 343 345 344 342 344 341 331 324 323 324 323 322 322 323 323 324 326 327 328 328 330 332 333 334 335
339 338 336 339 336 338 337 332 329 329 324 333 338 342 342 342 342 340 340 343 334 320 318 316 314 314 314 317 320 322 324 325 326 326 327 328 329 331
331 334 333 334 338 341 338 334 330 330 330 332 336 339 338 340 339 339 340 340 340 320 316 315 314 314 314 315 315 314 313 314 315 317 320 322 324 327
330 331 333 335 336 338 340 338 333 332 331 329 330 335 335 334 336 338 338 337 334 321 317 316 315 315 315 316 316 315 313 312 312 312 315 318 321 322
331 333 331 332 335 337 339 339 337 333 334 332 332 333 332 333 333 334 332 332 333 331 321 320 319 317 317 318 319 319 315 313 312 310 309 309 313 315
331 331 331 329 325 328 334 340 341 335 334 333 332 331 328 327 329 335 332 334 333 333 330 332 332 333 330 321 323 320 315 312 311 310 308 306 307 309
328 330 330 326 325 316 316 316 328 338 338 338 335 331 331 330 332 333 332 328 327 333 331 330 332 335 335 335 317 312 311 309 309 308 307 307 307 306
324 327 327 324 326 331 322 315 315 311 317 341 338 333 332 334 334 333 332 331 330 331 332 329 331 332 335 329 313 310 307 307 306 306 306 306 306 304
323 326 328 330 330 329 332 335 339 338 327 327 338 338 337 339 336 336 335 334 332 332 334 328 333 331 334 333 311 310 308 306 306 307 306 305 303 302
320 324 327 330 316 304 328 333 335 335 315 311 312 309 309 312 323 333 330 329 326 328 331 331 329 328 328 331 331 309 306 306 306 306 306 304 302 301
319 324 310 320 307 301 324 330 333 334 325 327 327 317 314 315 308 337 334 328 328 326 332 330 328 330 325 332 332 331 330 307 304 303 304 305 303 325
315 320 323 304 299 298 300 326 331 334 322 334 330 323 326 327 331 335 337 333 328 330 330 333 329 328 329 328 330 329 329 329 330 324 302 302 302 308
316 320 325 303 299 300 302 303 302 313 333 329 327 325 324 327 332 334 336 336 337 334 333 336 331 331 329 326 327 330 330 329 327 327 326 314 302 300
316 314 300 300 299 302 296 299 300 329 330 328 325 326 328 332 334 334 336 336 336 335 333 335 335 332 332 329 329 329 330 328 328 326 325 325 324 325
308 313 310 306 303 311 309 306 328 331 330 330 328 329 331 330 331 332 330 331 331 330 334 334 335 335 331 330 331 329 330 327 329 326 325 322 315 312
316 319 316 318 318 318 320 320 326 327 328 329 328 328 328 329 328 331 330 329 328 329 329 330 329 325 318 323 326 327 326 327 328 326 323 312 309 309
314 318 317 320 319 319 320 320 324 320 328 329 330 328 327 328 326 328 327 328 326 328 329 329 324 323 321 315 310 321 326 323 320 320 322 312 308 304
315 318 317 318 321 321 321 321 321 326 328 329 329 328 329 327 324 324 326 325 325 327 329 330 330 327 322 316 311 295 312 322 323 318 314 311 304 303
317 316 317 320 321 324 325 325 325 325 327 327 329 329 329 327 323 325 326 325 326 325 327 329 328 327 321 317 300 294 289 311 316 313 311 309 303 296
315 316 319 323 321 325 327 326 325 325 328 329 329 329 326 322 324 326 325 309 313 321 320 323 325 298 317 313 304 297 295 292 296 302 310 314 313 308
318 318 320 321 322 324 324 323 324 322 326 326 328 328 324 323 320 319 321 320 321 321 320 322 324 322 321 314 301 297 294 296 294 292 292 293 299 297
318 320 320 321 323 325 326 325 324 324 325 326 323 325 328 321 325 324 324 325 325 323 317 306 303 308 305 301 298 299 299 299 300 297 296 291 291 291

GFSNE_sfc_thetae_078.txt.gz
Theta_e
342 341 338 338 347 348 344 343 337 329 328 334 335 352 348 351 350 351 352 327 329 327 328 329 327 327 328 329 329 330 332 333 336 337 339 339 340 339
339 341 345 342 343 346 342 340 339 334 328 334 340 340 345 349 349 348 349 332 326 325 326 324 323 323 323 324 326 328 329 329 330 332 334 335 336 337
346 344 343 345 346 339 339 337 336 337 330 330 333 344 345 346 350 348 345 344 338 321 319 317 316 316 316 318 321 324 327 328 328 329 330 331 332 333
340 338 336 335 339 340 335 339 338 339 334 330 334 336 338 342 344 344 341 343 344 320 317 316 315 315 316 316 317 316 315 317 319 321 323 323 326 329
331 331 331 333 335 334 336 335 335 340 339 334 334 336 338 336 336 339 342 342 340 322 318 317 316 316 316 316 317 316 314 313 313 315 317 320 322 323
330 331 329 329 331 333 335 337 338 339 339 337 335 332 335 337 336 333 335 338 338 337 322 320 320 317 318 319 320 320 316 315 313 312 312 312 314 317
331 329 330 327 322 324 326 332 336 336 337 335 332 332 334 331 328 333 334 342 337 341 336 334 334 333 328 320 325 322 317 315 312 312 310 307 307 310
326 325 327 325 324 316 315 316 324 334 335 334 332 334 339 337 331 337 338 334 332 339 335 333 335 333 335 337 319 316 312 309 311 311 309 309 308 307
325 324 323 319 321 325 317 313 313 310 317 337 338 338 334 337 338 336 338 336 337 337 335 332 334 332 334 329 314 310 310 310 309 309 308 307 306 305
324 324 325 325 326 326 327 328 328 333 338 332 334 341 341 345 342 336 341 341 339 336 337 332 333 331 333 332 311 309 308 308 308 308 307 306 305 304
322 323 324 323 311 304 329 328 326 330 320 312 311 308 309 309 326 336 336 334 329 330 335 335 331 331 334 333 330 310 308 308 308 308 307 306 305 304
322 323 308 316 306 304 328 329 325 328 335 337 329 320 318 324 310 340 338 329 331 331 334 332 331 331 328 333 331 330 329 308 307 306 307 306 305 329
317 318 319 303 298 297 299 328 326 326 329 332 336 337 333 329 335 337 344 336 334 334 337 338 330 329 329 327 330 333 332 324 329 321 303 304 303 310
316 317 318 300 300 299 305 306 300 304 334 338 336 331 326 329 333 337 338 341 343 337 337 339 333 329 327 326 327 330 332 334 334 331 329 311 303 301
315 310 303 298 297 306 301 297 297 324 333 334 332 331 332 333 337 334 339 340 339 338 336 338 339 335 332 327 328 331 329 330 333 327 326 317 317 317
308 312 310 306 298 306 312 317 321 331 333 334 334 332 334 332 333 331 334 336 335 334 337 337 337 336 333 333 332 330 331 329 329 320 315 311 310 309
314 318 316 319 321 322 324 326 328 331 331 334 333 330 330 331 329 334 334 332 330 330 330 330 332 329 322 326 326 328 327 326 325 316 313 309 310 313
312 316 317 320 320 319 322 324 327 324 330 331 331 330 329 327 328 332 333 333 330 329 328 327 327 323 321 311 306 318 327 323 323 317 316 311 302 302
313 314 317 318 319 320 322 323 324 327 331 331 331 331 330 326 326 329 329 329 326 330 330 329 328 327 322 317 313 291 320 321 320 317 315 312 305 304
315 316 316 319 320 321 322 324 323 325 329 331 332 333 329 330 328 327 328 325 328 328 329 330 330 328 324 319 304 298 288 317 321 319 316 313 301 292
315 317 319 320 320 322 324 325 324 327 328 329 332 331 330 331 329 329 326 310 316 327 326 326 324 302 319 314 307 302 295 291 301 314 318 316 313 307
315 317 319 320 320 322 325 325 326 327 329 330 332 332 331 332 329 326 324 326 326 326 325 324 324 324 322 318 308 299 299 300 293 292 292 293 299 299
316 318 320 321 322 324 324 326 328 328 331 330 331 331 330 324 324 327 322 325 325 324 321 316 318 316 315 310 304 307 307 307 305 302 298 291 292 292

GFSNE_sfc_thetae_081.txt.gz
Theta_e
352 352 348 344 341 340 339 337 337 329 331 337 342 348 348 348 347 346 346 332 331 328 330 331 332 330 330 331 331 332 332 332 334 336 338 340 339 340
350 350 347 342 342 341 341 342 345 340 331 337 339 344 347 343 345 341 344 333 328 327 327 326 325 324 325 325 327 329 329 330 330 332 336 337 337 337
349 345 342 347 343 343 347 348 345 340 334 336 340 342 344 340 343 342 344 349 338 325 323 320 318 318 318 319 321 325 328 328 329 331 333 334 334 335
345 345 342 344 346 346 340 346 339 340 334 334 338 338 343 343 339 338 345 349 344 323 320 318 316 316 317 317 317 317 318 319 320 324 329 328 330 332
342 342 340 341 342 338 341 336 335 338 338 334 334 339 339 343 339 339 338 342 341 324 319 317 317 316 317 317 317 316 314 313 313 316 320 321 323 324
338 336 333 333 335 338 337 341 338 336 334 332 335 335 337 341 340 335 335 340 336 339 325 324 319 317 317 318 320 319 317 316 314 314 315 316 316 318
335 330 332 327 322 324 326 333 338 332 328 329 328 330 332 339 335 338 330 340 341 344 340 332 331 328 327 319 325 322 319 317 315 314 311 309 308 309
332 331 330 323 322 317 315 315 324 334 333 328 327 328 337 336 343 329 330 331 331 345 340 337 338 335 335 334 318 319 314 312 313 312 311 310 309 309
332 329 324 320 319 322 315 312 313 311 315 334 336 336 337 342 339 334 329 329 329 341 341 334 339 334 332 322 315 312 312 313 311 310 309 307 307 306
331 328 328 326 326 324 324 325 329 333 335 329 332 340 345 347 345 340 332 331 336 338 339 332 342 336 332 329 311 309 309 311 311 309 308 307 305 304
325 326 326 325 310 302 323 325 328 333 322 313 312 306 306 307 316 337 327 325 328 335 341 338 337 335 334 332 325 310 309 308 310 310 308 307 306 305
327 326 309 317 306 302 323 324 324 330 329 332 338 328 317 326 311 339 331 327 330 332 340 336 337 337 331 332 330 326 324 309 309 307 307 307 305 323
319 320 322 302 299 295 298 327 326 323 323 329 333 338 337 340 337 334 334 334 328 335 336 340 337 331 331 329 332 331 332 323 326 319 304 305 304 305
320 319 320 299 300 297 303 308 301 305 324 327 335 332 335 335 334 336 342 341 339 340 343 341 335 331 326 325 325 331 331 330 329 327 326 308 301 299
318 310 299 298 296 298 296 295 294 324 324 327 334 335 334 333 336 339 341 334 334 340 338 340 340 335 328 329 329 332 329 330 326 320 318 314 314 316
307 313 309 305 298 302 308 314 324 325 324 328 336 338 335 333 333 335 333 334 335 336 337 337 339 337 335 335 335 331 333 325 320 315 312 310 311 310
313 318 319 318 316 316 317 320 322 323 325 329 336 334 333 331 331 332 333 335 331 330 330 335 326 321 316 328 329 329 328 323 320 317 314 311 312 313
313 316 315 315 316 317 319 320 322 320 325 330 334 334 332 330 331 333 332 332 330 329 329 327 323 321 321 312 305 326 327 322 316 315 316 307 303 303
311 311 311 313 315 318 319 319 320 324 326 329 333 332 330 333 325 328 330 331 329 330 328 327 325 323 320 315 302 291 323 323 321 314 312 315 307 304
312 311 312 313 315 317 319 319 321 323 325 328 332 331 332 330 329 328 330 329 329 328 325 328 330 328 325 317 310 297 288 320 321 319 315 309 294 290
312 311 313 315 317 320 321 321 322 323 326 327 331 332 332 332 329 328 331 313 317 324 326 325 328 305 321 315 308 303 296 291 299 310 313 313 307 301
313 314 315 316 319 320 320 321 321 325 325 327 331 331 334 330 325 328 328 327 326 324 325 321 323 321 319 318 310 304 301 297 293 293 292 293 296 298
314 316 316 318 318 320 321 320 324 325 325 329 331 332 331 328 327 329 330 328 325 324 324 323 327 325 318 313 306 309 308 305 302 302 295 292 292 292

GFSNE_sfc_thetae_087.txt.gz
Theta_e
342 339 337 339 333 332 330 327 321 316 317 323 328 334 337 335 337 336 337 333 331 328 328 328 330 328 328 328 328 328 329 330 330 331 332 334 336 338
343 341 339 337 335 333 333 331 329 323 320 326 329 332 336 337 339 335 336 332 329 328 327 326 325 324 324 323 324 325 326 327 327 327 329 332 334 335
343 341 340 339 335 336 335 332 331 330 326 327 330 331 331 330 333 333 335 332 332 325 327 324 321 322 322 320 319 320 323 322 323 326 328 330 331 332
340 340 339 340 335 335 334 332 333 332 329 327 325 327 329 331 332 330 332 336 334 328 324 322 319 319 318 318 317 316 317 317 318 321 325 326 328 330
332 336 336 337 333 334 334 333 331 330 328 325 323 326 328 329 329 328 329 329 333 331 322 319 318 317 318 316 316 315 313 313 313 316 320 321 323 325
324 331 333 334 333 333 331 329 328 326 324 323 321 322 323 324 327 326 324 327 326 333 327 322 319 317 315 316 317 316 313 312 312 313 317 320 319 319
326 332 334 332 329 329 330 324 317 315 317 317 316 317 318 319 320 323 322 326 324 327 324 325 321 320 316 316 319 318 315 316 316 314 314 310 308 312
330 331 326 323 319 316 316 313 313 313 311 311 310 310 311 317 320 321 319 317 315 325 324 326 327 326 323 319 316 315 314 317 316 317 312 310 311 311
330 321 320 320 317 315 310 310 310 310 312 314 312 313 315 320 322 320 320 319 317 322 326 320 328 326 327 325 312 310 309 309 314 312 310 310 309 308
323 320 317 316 317 319 316 316 316 317 315 313 314 316 318 319 323 325 323 321 321 322 324 318 325 324 324 321 310 308 308 309 310 311 310 310 308 304
323 320 318 316 304 306 313 311 312 313 316 313 309 306 305 308 313 324 321 317 314 317 326 324 323 323 321 318 311 308 308 308 310 309 308 305 305 305
319 317 311 313 300 304 311 311 310 312 315 318 316 309 306 312 305 320 324 322 315 315 323 321 323 322 321 320 313 312 311 310 307 307 309 309 308 320
317 314 313 303 298 299 305 312 310 313 313 315 315 314 316 321 326 320 326 327 318 318 324 325 323 322 321 320 318 315 315 314 314 307 301 301 301 311
316 316 313 302 298 297 297 301 296 300 312 313 312 311 314 320 327 327 327 327 325 323 326 328 325 323 321 318 319 320 318 315 316 311 306 302 298 297
314 311 297 295 295 294 295 295 297 305 308 309 309 310 316 323 326 328 325 325 325 327 332 329 328 326 323 321 319 320 318 320 316 311 313 312 308 305
303 302 301 301 300 303 299 296 305 307 307 308 311 313 321 324 323 323 322 322 320 319 322 321 325 325 322 323 323 321 318 314 313 311 309 304 300 298
306 305 304 304 303 304 306 307 307 307 309 312 313 314 317 321 322 324 322 321 318 318 317 313 312 312 308 321 321 320 315 312 311 307 306 299 296 293
304 303 303 304 305 305 307 309 310 308 308 310 314 315 319 321 322 322 322 321 318 321 316 313 315 318 317 311 306 317 314 310 309 308 302 295 292 289
303 304 304 306 308 310 309 308 308 310 312 314 314 317 319 320 317 320 321 321 320 319 318 318 317 319 315 309 303 295 314 311 311 307 304 303 292 287
305 304 306 309 309 307 305 305 306 308 310 313 315 317 318 319 320 320 321 320 318 320 319 319 319 319 315 309 300 291 289 312 311 306 293 290 288 290
308 308 308 307 306 305 305 306 306 307 309 313 315 317 318 319 318 320 319 307 311 319 319 318 320 299 303 304 297 291 292 292 307 306 293 290 287 285
310 309 308 306 306 306 306 307 307 307 308 313 316 318 319 320 319 319 318 318 317 318 319 316 311 312 313 312 296 290 290 292 294 295 294 297 295 288
309 307 306 306 306 306 305 306 306 308 309 315 317 318 318 319 320 320 320 320 319 318 318 313 313 316 310 303 293 290 290 292 291 291 289 293 295 295

GFSNE_sfc_thetae_093.txt.gz
Theta_e
333 330 326 327 328 329 331 329 324 319 319 321 322 328 327 328 334 335 333 331 329 326 325 325 326 326 326 326 327 328 328 328 329 330 331 332 333 335
330 329 328 327 326 330 332 329 328 325 320 322 322 327 332 333 335 333 332 330 328 325 325 324 323 322 322 322 323 324 326 326 325 326 327 329 331 333
329 327 327 326 327 332 335 331 329 327 323 323 326 327 329 330 331 334 332 330 328 324 324 322 320 320 320 319 320 320 321 320 319 319 326 327 329 331
326 325 327 326 322 323 327 329 329 328 325 323 325 325 326 327 328 328 330 331 329 328 322 320 318 317 317 318 316 316 315 315 316 320 322 324 326 329
326 326 328 323 320 322 322 321 324 330 328 326 324 324 325 324 324 325 325 325 328 330 321 318 317 316 316 316 314 313 311 311 312 316 317 320 321 322
330 326 325 323 323 323 324 323 324 324 327 327 323 321 322 321 322 321 319 322 324 328 326 321 317 316 315 315 315 313 309 308 309 311 311 313 313 316
325 326 326 326 325 325 325 322 322 320 321 324 322 319 317 316 318 318 319 317 318 321 320 322 319 318 316 315 318 315 310 308 308 310 309 306 306 309
322 322 323 321 318 316 318 318 322 323 324 324 321 316 315 315 316 317 315 314 313 317 318 318 322 317 317 317 314 310 308 308 308 307 305 306 307 308
321 321 321 322 317 319 313 312 314 315 320 323 318 313 310 311 316 314 314 313 313 315 318 315 324 323 325 322 310 307 307 307 307 305 305 307 304 302
320 320 319 320 319 319 320 320 321 319 319 317 318 313 312 314 317 317 316 315 315 317 318 313 322 322 321 317 308 307 306 305 305 304 304 302 300 299
317 318 320 321 310 307 318 316 315 315 311 308 307 305 303 305 313 323 319 319 318 315 317 316 315 319 320 316 312 308 304 304 305 304 303 301 299 300
321 321 311 317 302 304 316 314 312 314 316 313 311 306 305 306 313 317 316 314 314 312 316 315 318 319 316 317 313 313 310 304 303 302 302 302 304 312
319 316 314 302 301 303 306 312 309 312 311 315 314 313 313 311 309 312 320 318 317 317 316 318 316 319 319 314 314 314 313 309 309 304 300 301 304 307
317 316 307 299 299 300 302 297 301 309 312 309 308 307 307 309 311 314 318 324 329 323 318 321 317 317 316 315 313 315 314 314 313 308 303 299 299 298
317 309 300 296 296 297 295 297 302 308 307 305 304 304 306 309 313 322 326 326 324 324 323 321 320 319 321 318 315 314 313 313 311 309 308 307 304 302
306 303 302 301 301 298 301 303 305 305 304 302 302 304 309 317 319 326 323 322 319 317 318 317 323 321 320 320 318 314 315 309 311 304 300 299 298 298
305 305 305 305 303 302 302 301 301 303 303 304 307 309 311 312 313 316 320 320 315 314 314 313 312 314 313 322 317 316 314 311 306 300 297 293 292 293
307 306 304 305 304 302 302 301 303 303 305 306 306 308 309 311 313 316 321 316 313 312 312 313 314 315 315 312 310 316 313 308 303 300 298 292 289 290
305 304 304 303 302 302 302 303 305 306 307 307 307 306 308 310 312 314 315 315 313 313 312 315 316 314 313 310 309 301 310 306 300 297 297 293 288 289
304 303 302 302 302 302 303 304 304 303 304 306 307 308 309 311 312 313 314 314 316 317 314 315 315 316 314 310 307 303 297 304 302 298 290 288 287 289
303 302 303 303 303 303 304 304 303 302 303 304 306 307 309 310 311 312 311 302 305 317 315 314 316 296 306 308 304 301 302 298 302 298 290 287 285 285
306 305 305 305 305 304 303 302 302 302 302 303 304 306 307 311 310 311 311 315 315 313 315 312 307 310 313 313 305 299 298 295 295 295 294 292 288 283
306 307 306 306 305 304 303 303 302 302 302 303 304 306 308 309 311 312 312 313 312 313 313 310 310 313 306 303 300 299 295 294 295 293 292 294 295 295

GFSNE_sfc_thetae_096.txt.gz
Theta_e
335 335 335 334 333 332 330 329 325 320 322 328 328 333 334 333 334 337 341 330 325 322 324 324 327 327 327 327 328 328 329 329 330 331 331 332 333 335
334 333 332 333 330 330 329 328 327 324 319 327 328 334 334 333 335 340 340 330 326 325 325 323 324 324 324 324 324 325 326 326 326 326 328 329 330 332
331 330 330 331 331 330 329 327 326 326 322 323 330 332 334 336 336 340 338 339 337 324 324 322 320 319 320 321 321 321 322 321 320 321 325 327 329 331
327 329 329 329 329 329 327 326 327 329 326 323 329 330 331 333 336 336 337 337 337 327 323 320 317 316 317 317 316 315 315 315 316 320 323 325 327 330
326 327 327 327 326 327 328 328 329 330 329 328 326 328 329 329 330 332 334 336 335 330 322 318 316 315 316 316 314 313 311 311 313 315 320 319 321 323
324 326 326 327 326 326 326 325 324 324 326 325 325 324 326 329 329 330 330 332 333 334 327 323 320 316 315 315 314 314 310 308 309 310 312 313 313 316
321 323 326 327 325 326 327 327 326 324 322 321 322 322 323 322 326 327 329 329 329 331 331 325 322 322 319 315 317 315 310 308 308 309 309 307 307 309
319 320 324 324 323 318 319 320 325 324 321 321 320 320 324 325 326 326 324 324 323 326 329 326 324 322 323 321 314 309 308 308 308 308 306 307 307 307
318 319 322 325 323 325 316 314 314 314 319 324 322 323 324 322 322 324 324 323 324 324 327 324 327 326 328 323 309 307 307 306 306 305 306 305 303 301
317 320 322 322 323 324 324 322 322 321 319 324 326 326 326 322 327 327 325 325 324 325 328 324 326 325 321 318 308 307 306 305 304 304 304 301 299 299
318 320 322 321 311 307 323 320 321 322 312 310 312 307 305 306 316 323 321 323 321 324 327 325 322 320 320 315 312 307 305 304 303 303 301 300 299 299
317 319 309 318 304 303 320 320 319 317 314 311 309 305 308 310 310 326 326 324 322 321 327 324 319 321 316 316 312 310 310 304 302 301 301 302 303 308
315 317 319 303 300 301 309 319 318 315 311 314 313 313 314 317 320 322 327 325 323 324 324 327 320 322 319 314 314 313 313 309 310 304 300 302 302 305
313 317 314 298 298 300 309 302 302 310 318 317 315 315 315 316 316 317 321 325 331 330 325 330 325 324 318 315 313 315 314 314 313 309 306 300 298 298
316 310 300 298 299 300 298 299 304 317 315 314 312 311 314 317 318 319 321 324 327 327 326 329 329 327 325 320 314 314 313 313 312 308 308 307 304 303
303 303 302 300 302 303 306 308 312 312 310 309 308 311 315 317 322 326 323 323 321 319 320 324 330 330 326 323 319 314 313 308 309 306 302 301 300 300
305 307 306 306 307 306 307 307 308 309 308 309 312 316 320 320 322 325 323 324 321 320 317 316 319 322 319 322 317 317 312 309 304 301 299 294 294 295
308 307 305 306 306 306 305 305 308 308 311 313 315 316 316 318 322 324 323 322 320 317 315 315 316 317 316 315 313 316 311 305 303 303 301 295 290 292
308 308 307 307 306 307 307 309 308 311 312 313 313 314 315 316 320 322 322 320 321 318 316 317 317 319 314 311 312 303 309 305 301 299 298 294 291 291
308 306 305 305 306 306 308 310 310 311 312 312 313 314 316 318 319 321 323 321 320 320 315 316 318 320 319 316 311 306 298 303 302 296 289 288 288 290
307 307 307 308 308 308 310 310 308 309 310 311 313 315 317 319 320 320 320 307 311 320 316 316 319 300 313 314 306 303 300 296 302 297 290 288 288 288
308 307 307 309 308 309 309 309 307 308 309 310 312 314 316 318 319 319 319 317 318 321 320 312 311 315 316 314 304 299 295 294 295 295 294 293 290 286
310 310 310 310 310 309 309 308 308 308 309 311 313 314 317 319 319 320 320 321 318 317 315 311 312 313 309 308 301 299 294 292 293 294 293 294 294 295

GFSNE_sfc_thetae_102.txt.gz
Theta_e
340 344 340 333 331 331 333 331 327 320 323 333 334 342 341 341 343 348 349 332 329 325 324 326 327 330 332 332 333 333 333 334 333 333 333 334 335 336
334 337 338 334 333 330 329 328 327 324 321 324 328 342 347 340 341 344 347 333 327 325 324 325 325 326 327 327 328 329 330 329 329 330 330 331 332 333
334 336 337 339 331 328 330 328 327 327 324 328 332 339 346 343 342 345 345 348 343 324 325 324 322 323 323 324 325 326 326 327 326 323 324 328 330 332
328 331 332 333 335 338 331 332 329 332 326 329 333 334 342 344 342 343 343 342 344 328 324 322 320 319 320 320 320 320 318 319 319 321 323 326 330 332
322 326 329 331 332 330 332 330 328 330 329 331 328 333 336 339 338 342 341 345 343 331 323 320 319 318 318 318 316 315 313 312 314 316 319 321 325 325
318 323 325 328 330 331 331 332 332 328 327 326 330 328 333 338 338 335 335 342 340 339 332 329 322 317 316 316 316 315 311 310 311 313 312 313 315 319
309 312 320 323 321 324 329 330 330 328 324 323 327 326 327 331 332 335 335 342 340 339 335 335 334 335 328 317 323 317 311 309 309 310 309 309 309 311
305 307 311 315 317 315 314 315 322 329 327 322 321 324 329 332 335 334 337 331 329 341 337 333 338 337 338 337 321 312 308 308 308 308 307 307 306 307
304 304 307 311 311 319 315 312 313 311 313 328 326 327 329 337 340 337 333 331 331 341 339 333 334 334 338 328 309 307 306 306 306 307 306 306 305 303
303 305 306 309 311 311 320 322 323 326 327 325 331 332 338 338 336 330 331 332 337 341 340 327 333 332 334 330 307 306 305 304 305 305 305 303 300 299
306 308 309 311 304 301 312 316 321 323 318 312 314 315 310 308 323 330 331 333 328 326 331 328 330 322 323 320 315 306 304 304 304 303 302 300 298 299
304 306 304 308 302 300 309 318 317 318 321 325 329 320 312 318 309 334 330 331 328 325 329 327 326 325 317 317 316 315 313 303 302 301 301 300 302 314
306 308 315 301 299 299 300 317 317 319 320 327 328 327 327 328 325 329 336 335 330 324 326 327 327 326 325 313 314 316 316 308 309 304 299 301 303 311
311 311 314 302 298 298 301 303 300 305 324 326 322 322 322 324 327 333 338 339 333 327 329 330 328 327 323 316 313 315 314 315 313 309 310 300 299 298
305 306 301 298 296 300 297 298 298 314 318 319 319 318 322 330 334 336 336 334 329 330 333 336 331 332 328 325 315 314 312 313 312 309 307 310 309 310
306 306 304 303 303 309 307 303 311 319 320 320 320 322 322 322 324 329 326 326 323 327 335 336 337 335 329 328 323 315 316 312 311 309 310 312 314 315
298 309 306 306 307 310 311 313 318 317 317 317 319 319 319 320 320 323 323 325 323 324 324 331 335 331 328 331 323 319 316 312 311 308 306 302 304 309
310 308 309 312 311 312 313 314 317 314 317 317 318 319 318 318 318 320 322 323 321 322 321 324 327 325 326 323 315 320 315 310 308 307 305 302 298 297
312 309 310 309 309 310 310 314 315 317 320 318 318 320 318 319 319 323 323 324 321 322 322 327 328 327 322 318 313 302 315 308 305 303 304 302 299 295
314 311 312 312 313 313 312 311 316 318 318 315 319 320 322 321 321 322 324 323 321 321 320 325 327 327 325 323 316 309 295 310 307 298 292 291 290 292
314 313 313 315 318 319 319 319 319 320 320 320 321 322 323 324 325 322 325 311 314 321 320 322 327 302 329 325 316 305 299 295 304 300 293 293 291 291
317 316 317 318 314 315 317 319 321 321 322 322 322 323 324 326 326 326 327 325 326 324 323 324 326 329 328 325 317 302 295 295 295 295 295 295 296 291
320 317 315 317 316 316 316 315 316 317 321 323 323 324 325 322 325 328 328 328 326 324 321 321 324 325 324 322 307 302 295 295 295 295 293 293 294 296

GFSNE_sfc_thetae_105.txt.gz
Theta_e
335 339 341 339 338 335 332 333 328 323 325 331 332 342 342 345 345 347 349 335 330 326 325 326 328 330 332 333 334 335 336 336 337 337 337 337 337 338
329 331 334 335 337 338 335 332 330 328 325 329 330 338 348 343 343 346 345 335 328 325 325 325 325 326 327 328 329 330 332 332 332 331 331 331 332 333
326 326 327 333 331 332 335 334 330 328 324 328 329 334 340 342 346 348 345 345 342 325 325 324 322 323 324 325 325 327 327 328 329 328 327 329 330 331
317 318 321 327 330 332 333 333 332 330 324 324 332 332 336 340 344 347 344 342 344 330 324 322 320 320 321 321 321 322 322 322 323 324 326 326 329 332
310 312 317 321 324 327 330 331 330 331 332 327 324 330 332 334 337 343 345 345 343 332 322 321 320 318 319 319 318 316 315 314 314 317 320 321 326 327
309 313 313 313 317 322 325 327 329 328 328 328 324 326 329 333 334 333 337 342 339 341 331 328 321 319 318 318 316 315 312 310 311 313 313 315 317 317
308 308 309 313 312 311 311 319 326 326 325 321 321 320 325 326 326 330 332 336 342 346 340 334 329 325 323 318 322 317 311 310 310 310 310 309 310 311
303 306 308 309 309 307 308 310 313 319 321 318 320 318 323 327 327 331 333 333 331 345 341 332 333 330 331 330 322 313 309 309 309 309 308 307 307 307
304 305 305 306 308 308 308 308 310 309 312 322 319 320 322 329 330 331 332 335 334 342 340 334 333 332 336 332 312 308 307 307 307 307 307 306 305 303
303 305 304 306 308 308 309 311 314 315 324 321 325 329 331 332 331 332 334 338 340 340 341 326 330 329 336 320 310 307 305 305 306 306 306 304 301 300
305 307 306 306 303 299 308 309 310 311 315 311 311 309 308 307 312 333 328 332 327 331 333 329 327 324 324 320 313 306 304 305 305 305 303 300 299 299
307 305 302 303 300 298 304 306 304 307 312 323 318 316 310 320 307 330 330 325 323 324 335 327 322 320 314 317 315 313 310 304 302 301 301 300 302 310
305 305 307 301 297 297 298 306 306 311 313 318 320 324 326 329 330 332 328 328 328 327 335 331 323 323 319 311 315 317 316 308 308 303 299 301 303 308
305 306 308 301 298 299 297 300 298 302 312 314 320 323 324 325 328 331 334 330 338 332 333 335 326 323 316 313 311 314 313 314 313 309 308 301 300 303
306 304 301 299 297 297 295 297 297 309 312 315 318 321 326 326 331 332 334 335 335 330 332 333 328 326 321 320 312 313 311 313 313 310 309 312 312 312
306 306 304 303 301 305 306 300 309 316 317 318 315 325 329 330 329 333 331 330 324 323 329 328 328 326 325 324 317 311 313 310 310 310 311 312 312 314
297 300 303 307 307 310 314 316 317 318 316 316 318 318 320 323 325 330 327 324 320 320 320 323 324 324 324 326 317 316 316 311 310 310 309 306 305 309
303 309 308 307 308 310 314 314 314 314 318 320 318 319 318 319 320 323 324 322 319 321 319 323 324 323 321 320 314 317 316 313 311 309 307 302 298 299
309 309 309 307 309 313 313 313 314 317 317 318 316 316 314 313 315 316 319 318 318 321 324 325 327 324 318 313 311 300 311 309 307 305 305 304 299 296
311 311 312 311 310 311 313 315 314 316 314 315 313 315 315 312 311 315 316 319 320 322 323 326 325 325 324 317 312 305 295 308 306 298 292 291 290 292
313 314 313 316 317 313 313 315 315 310 311 316 316 315 316 316 318 317 319 309 313 319 319 323 325 306 323 319 308 301 297 295 304 302 293 294 291 291
311 314 315 318 317 318 318 319 319 316 314 316 318 321 322 321 319 321 321 321 323 322 322 327 327 328 327 322 308 298 294 294 295 295 295 295 295 291
304 307 315 316 317 317 318 319 319 321 321 323 322 320 323 323 325 324 323 324 324 323 322 324 325 327 320 311 300 299 295 296 297 295 293 294 295 297

GFSNE_sfc_thetae_108.txt.gz
Theta_e
324 325 327 327 331 335 333 329 322 315 315 324 328 332 334 336 338 339 338 337 331 327 325 326 327 330 332 333 334 335 336 337 337 338 339 340 341 342
319 320 321 323 324 326 328 329 329 323 316 319 327 331 335 334 341 341 341 336 328 326 326 325 324 325 327 328 329 331 332 332 332 333 335 334 334 334
314 314 315 317 317 320 322 324 326 326 322 322 324 328 332 336 337 340 341 338 336 324 325 324 321 322 324 325 325 327 328 327 327 328 331 329 330 330
308 309 309 311 310 314 316 319 322 324 322 320 322 323 327 327 333 334 337 340 338 332 324 323 320 318 320 322 322 322 322 322 324 325 326 326 327 329
307 306 306 306 307 309 311 314 318 322 323 321 322 325 324 329 327 328 332 333 339 334 322 321 319 318 319 319 319 318 316 316 316 317 320 320 324 326
307 307 306 306 306 307 309 310 313 310 315 320 321 321 324 326 326 322 322 331 331 336 331 325 320 318 318 318 319 319 313 309 310 312 314 315 315 319
306 306 306 307 308 308 306 306 306 305 308 310 317 319 319 320 319 323 322 325 329 334 330 331 325 322 319 317 320 318 311 309 309 310 310 310 310 310
304 304 305 307 306 306 306 307 306 304 303 305 310 314 317 319 321 322 322 321 319 333 331 332 329 326 324 322 317 312 309 308 309 309 308 308 307 307
304 304 304 305 305 304 304 305 306 305 306 307 306 311 316 320 322 322 320 321 320 327 331 329 330 327 329 326 312 308 307 308 307 307 307 306 305 303
305 304 304 303 304 303 304 304 306 307 308 311 311 315 317 321 323 323 322 322 322 326 331 324 330 329 322 319 312 307 306 306 306 306 305 304 301 301
306 305 305 304 302 299 303 302 303 305 309 306 305 303 303 307 310 321 319 318 317 320 329 328 327 321 319 313 312 309 307 304 305 305 303 301 299 299
307 307 303 303 300 297 302 302 301 303 306 308 309 308 307 312 308 317 316 315 316 315 327 327 320 318 313 314 310 309 307 304 303 302 301 301 302 306
305 307 309 301 297 296 297 302 301 303 304 307 309 310 315 318 320 318 323 321 318 317 325 325 322 319 315 311 313 312 310 306 305 302 300 301 303 305
301 305 309 300 297 296 297 298 296 298 303 306 307 309 315 317 320 323 325 325 327 324 328 327 323 319 313 311 309 312 310 311 309 305 306 302 301 300
302 304 300 298 297 298 296 296 296 300 304 305 305 308 316 319 321 322 324 328 326 326 330 329 326 320 318 314 309 310 310 311 311 308 308 310 309 308
304 305 303 301 299 303 303 302 302 306 306 305 308 312 317 319 320 322 321 323 322 322 328 329 327 322 319 316 314 310 311 308 310 309 311 312 311 310
298 303 308 305 304 306 307 310 308 309 308 310 312 313 315 317 319 322 322 322 321 320 317 320 319 317 318 318 312 312 312 309 310 310 311 308 306 309
306 309 308 308 307 308 310 312 314 311 312 314 315 315 315 317 318 319 322 321 319 316 315 317 318 316 316 313 309 313 311 309 309 311 309 304 300 299
310 311 308 309 311 312 312 312 311 314 315 313 315 315 317 319 314 319 320 319 315 315 316 317 318 317 313 307 309 299 311 309 308 306 306 303 299 296
303 306 310 308 310 311 312 311 311 311 313 314 313 312 312 315 318 319 318 317 315 316 317 318 319 320 314 311 306 302 295 309 307 297 292 291 290 293
299 303 306 307 309 313 311 310 310 310 312 313 313 313 313 313 314 317 317 308 311 318 317 319 321 303 313 312 303 296 295 295 302 299 294 293 292 292
295 296 302 304 305 305 307 314 313 310 312 314 313 314 314 315 314 315 313 317 318 320 320 317 319 319 318 310 298 294 292 294 295 295 295 296 296 292
292 293 297 299 301 301 303 300 301 301 308 317 316 317 316 314 316 317 315 318 319 319 319 319 319 314 310 303 296 295 293 295 295 293 292 295 296 296

GFSNE_sfc_thetae_111.txt.gz
Theta_e
315 315 315 317 318 319 321 323 320 315 316 321 320 325 329 332 334 334 334 332 331 327 326 325 326 328 330 333 335 335 336 336 338 338 338 341 342 343
311 310 311 312 313 315 314 315 317 317 315 322 323 322 321 326 332 335 334 332 330 326 325 324 323 324 326 328 330 331 332 332 332 332 334 336 336 337
305 306 307 307 307 309 309 310 313 314 314 319 323 325 325 326 332 335 338 335 333 325 325 323 321 321 322 324 324 326 328 328 327 327 329 330 330 331
304 303 304 306 303 303 303 303 306 311 313 311 318 321 322 325 326 327 334 337 335 328 325 323 321 319 319 320 321 322 323 323 323 324 325 325 326 328
306 305 304 304 303 301 302 302 305 308 309 310 310 317 321 326 325 326 327 329 334 332 324 321 319 318 317 319 318 319 318 317 317 318 320 321 323 324
307 307 305 304 303 302 302 303 303 302 305 306 307 309 314 321 325 323 322 326 327 334 328 324 318 316 317 319 319 319 316 313 312 313 313 312 315 319
303 304 304 306 308 307 304 302 301 300 301 301 301 303 306 312 316 322 321 319 322 325 324 324 323 322 320 319 322 320 314 313 311 309 309 309 309 312
302 304 305 307 306 306 306 306 305 300 298 298 298 298 302 306 312 318 320 318 316 324 324 322 327 324 324 322 318 315 311 310 308 308 308 308 307 306
303 303 303 305 305 305 304 304 304 304 304 302 299 300 301 306 310 312 318 317 315 320 322 319 328 327 326 324 313 309 308 306 306 308 307 307 305 304
304 304 304 304 304 303 302 301 301 302 302 305 305 304 304 307 310 315 316 320 321 320 322 316 325 325 326 323 310 308 306 305 306 306 306 305 302 300
304 306 307 306 303 298 302 301 300 302 305 303 302 301 301 302 306 310 313 316 314 314 319 317 317 318 316 313 315 309 305 307 305 305 305 302 299 299
300 302 303 304 301 297 301 301 300 302 303 304 305 304 301 305 303 308 313 314 315 311 317 317 317 316 311 311 311 309 308 305 303 303 302 301 301 307
296 298 301 299 298 296 297 303 302 303 303 304 304 305 307 307 308 314 315 316 313 310 321 321 320 317 314 309 311 311 309 306 304 302 300 301 302 306
297 300 302 298 297 297 297 298 296 299 302 302 302 303 305 306 311 316 317 319 320 316 320 321 318 316 312 310 308 309 309 309 308 304 305 301 299 298
301 304 299 297 296 296 296 295 295 300 300 300 300 303 305 308 315 317 319 320 320 320 323 321 322 319 316 312 309 308 308 308 309 307 307 307 305 304
305 308 306 301 297 297 300 301 302 303 302 302 304 305 310 312 314 313 314 316 316 317 322 325 325 321 317 314 313 308 310 307 308 308 309 309 308 307
304 309 310 310 308 306 305 306 307 305 304 305 304 307 309 311 312 313 313 315 316 316 319 322 323 320 315 315 311 311 309 308 309 309 310 308 308 309
301 303 304 305 307 310 309 309 311 307 306 306 306 307 309 309 311 313 316 315 315 316 315 315 314 312 313 312 308 311 310 309 310 311 310 305 300 300
296 298 300 300 303 306 310 310 310 312 311 308 308 309 309 310 309 315 315 315 316 316 316 316 317 315 312 305 306 299 309 309 309 308 308 304 299 295
293 294 295 298 299 301 301 305 309 312 313 313 312 312 312 315 314 315 317 316 315 315 315 317 316 316 310 308 302 300 295 309 308 298 292 291 291 294
290 291 293 294 298 296 297 296 298 299 308 312 312 313 313 315 316 317 316 306 309 315 313 315 314 300 307 307 300 295 295 296 303 299 295 294 293 293
288 290 291 292 295 293 293 293 292 293 297 302 311 313 312 313 315 317 316 314 315 315 314 311 313 313 313 308 298 293 292 294 296 296 296 297 297 294
287 288 289 290 291 291 289 289 289 289 290 294 298 306 313 311 312 314 318 318 317 316 315 315 314 309 306 301 296 294 293 294 295 292 291 294 296 297

GFSNE_sfc_thetae_114.txt.gz
Theta_e
305 307 307 308 310 310 311 312 311 307 310 318 320 323 322 326 330 330 331 330 329 326 325 324 325 326 327 330 333 334 335 335 336 338 339 341 342 343
305 304 304 305 305 305 306 308 309 308 305 313 316 321 324 326 328 327 328 328 327 325 326 325 323 323 324 325 326 329 331 331 330 332 334 334 336 337
303 303 303 304 304 302 302 303 302 303 301 305 311 317 318 320 323 325 327 331 332 325 326 324 321 320 320 321 323 325 327 327 327 328 329 330 331 332
303 303 303 306 302 301 302 300 300 300 300 299 304 307 313 316 319 321 325 329 334 330 324 322 320 318 318 318 319 320 321 321 323 324 325 326 327 329
304 303 303 304 304 302 301 300 301 302 301 301 301 304 308 310 311 316 323 327 330 332 323 321 319 318 316 316 316 316 315 315 317 318 319 321 322 323
303 303 303 303 303 302 302 302 302 300 300 299 300 302 304 307 308 310 313 323 325 331 327 323 319 316 314 315 316 317 313 312 313 314 313 313 313 316
304 303 303 305 307 306 303 303 303 301 300 298 297 297 298 300 300 305 310 313 322 324 327 323 323 321 319 315 321 320 314 311 311 312 310 307 307 309
303 304 304 306 306 307 307 308 306 302 300 299 297 296 297 297 300 301 304 308 313 323 323 322 325 324 324 323 317 314 311 310 310 311 309 306 306 306
304 304 304 306 306 305 305 305 305 304 304 301 299 299 299 299 300 301 303 307 309 319 323 317 325 322 326 324 311 309 310 307 307 307 307 306 304 302
302 303 303 304 305 305 304 304 303 303 303 303 302 301 301 302 302 303 303 307 311 315 320 316 322 321 326 323 310 308 306 304 304 305 306 305 302 301
301 302 302 302 301 298 303 303 303 303 304 303 302 300 299 300 302 304 304 306 310 313 319 316 316 317 315 314 314 308 304 303 304 305 305 303 300 300
297 299 300 299 297 296 299 302 301 302 303 303 304 301 301 302 301 302 305 305 306 312 319 317 316 315 312 311 310 309 307 304 304 303 303 301 301 308
295 298 302 299 298 296 296 300 302 304 304 304 304 304 304 305 307 304 305 306 305 308 316 319 317 315 309 307 309 310 310 306 305 304 301 300 302 308
296 301 306 300 297 296 295 296 295 297 303 303 303 302 303 304 305 306 307 310 312 312 317 321 318 312 307 309 307 308 309 311 310 306 306 300 299 299
300 301 298 299 301 300 298 294 293 299 300 300 301 302 304 306 307 308 309 311 314 316 319 319 319 312 312 309 307 307 306 308 309 307 306 306 305 305
299 304 302 301 301 304 301 302 302 301 301 300 301 302 304 305 306 308 308 310 313 314 320 322 319 316 314 312 311 307 308 306 308 308 308 307 306 307
297 299 299 300 299 300 302 305 309 306 303 303 303 304 305 307 308 312 313 313 311 313 317 318 317 315 313 314 310 310 309 307 308 308 308 305 306 307
294 294 294 294 296 295 296 296 299 301 307 305 302 305 305 308 309 311 313 313 310 312 315 313 312 311 311 311 308 309 309 308 309 310 310 305 302 303
291 291 292 292 294 292 293 293 293 296 301 307 303 303 306 308 307 309 310 313 311 315 315 315 314 313 309 303 305 300 309 309 309 308 309 305 300 296
288 289 289 290 292 290 289 290 291 292 293 299 309 310 310 310 310 311 312 313 314 314 313 316 316 315 311 306 302 300 294 310 309 298 293 293 292 294
287 288 288 289 290 289 288 288 289 289 290 293 296 302 311 312 312 314 314 304 308 314 313 314 312 298 305 306 299 294 295 296 303 300 296 296 295 295
287 287 288 288 288 288 286 287 287 287 288 289 291 294 300 311 314 315 314 313 314 314 311 306 310 312 311 307 296 293 293 295 295 295 295 296 299 297
286 286 287 287 287 287 286 285 285 285 286 286 288 291 296 307 312 316 315 315 314 311 311 309 306 306 303 298 295 295 295 295 295 292 291 294 295 296

GFSNE_sfc_thetae_117.txt.gz
Theta_e
301 301 302 304 305 306 306 306 305 300 303 308 310 316 319 320 324 325 326 328 327 325 324 324 324 326 327 328 330 332 334 335 337 338 340 341 342 342
303 301 301 301 301 302 303 302 303 301 298 304 305 308 312 318 320 321 322 325 324 324 325 324 322 323 323 324 325 328 330 331 332 333 335 336 337 338
303 303 303 302 301 302 300 300 300 300 297 299 301 303 304 307 311 314 320 320 323 323 324 324 322 321 322 321 322 324 326 327 328 329 329 331 332 334
303 303 303 305 303 303 301 300 300 300 298 296 299 300 302 307 309 310 312 315 320 324 323 322 320 319 319 318 319 319 320 321 323 324 325 326 328 331
304 303 302 302 301 301 302 301 301 302 300 298 298 301 301 302 303 308 310 311 315 320 320 321 319 318 318 317 316 314 314 313 315 318 321 322 324 326
305 305 304 302 301 301 302 302 302 300 300 299 299 300 301 301 302 302 302 304 306 317 321 322 321 319 317 316 316 315 312 310 310 312 314 314 316 317
304 305 304 306 308 307 305 303 301 300 300 300 299 299 299 298 296 297 297 299 302 307 312 320 323 322 319 316 320 319 313 310 309 310 311 311 309 310
302 304 305 307 307 308 308 308 307 303 301 301 300 299 298 298 299 298 297 296 296 311 315 317 325 324 323 322 316 313 311 309 309 309 309 307 306 306
300 301 302 305 306 306 306 306 306 305 306 305 302 299 298 299 299 298 297 297 299 303 308 308 316 322 324 323 313 310 308 307 307 307 307 305 304 303
298 300 300 301 303 303 303 303 304 305 305 305 305 304 302 301 299 299 298 298 301 304 307 303 313 319 324 322 311 309 306 305 305 306 304 303 302 302
297 298 299 300 300 298 300 300 300 302 306 304 302 301 299 298 301 301 299 299 298 301 311 309 312 318 317 316 315 307 305 304 305 305 304 303 301 301
295 297 299 300 297 298 299 299 298 300 303 305 304 301 300 301 300 302 302 300 299 300 309 313 316 314 311 311 311 309 306 303 303 303 303 302 301 310
293 296 301 299 297 296 296 299 300 301 302 304 304 304 305 304 303 303 303 302 299 301 309 309 316 314 310 308 309 309 309 305 306 304 301 301 302 310
294 298 301 297 295 296 300 297 294 295 299 301 303 303 303 304 305 306 307 305 305 305 308 312 312 314 307 308 307 309 309 309 309 307 306 301 300 301
296 297 296 295 296 298 297 296 299 300 298 299 299 301 304 305 306 306 308 308 306 307 311 312 312 313 312 309 307 307 306 308 310 308 306 307 307 307
295 299 297 296 296 295 296 297 298 299 300 301 301 302 304 304 304 306 305 306 306 305 310 315 315 316 312 307 306 307 308 305 308 307 309 308 308 310
294 294 293 293 293 292 292 293 294 295 295 300 303 303 303 304 304 306 306 307 305 304 309 314 317 315 309 309 307 308 308 307 308 308 307 305 306 308
291 289 290 289 290 289 289 289 291 291 292 295 301 303 305 306 307 309 310 307 306 308 310 311 311 311 310 308 306 309 308 307 308 309 308 305 303 305
288 287 287 288 288 288 287 287 287 289 291 292 294 300 304 305 305 307 309 311 309 311 313 313 313 312 308 303 306 299 308 308 308 308 308 305 301 299
287 287 286 287 287 287 286 286 287 287 288 289 290 293 296 304 307 309 310 310 311 313 312 313 314 314 311 305 302 300 294 309 307 298 294 293 293 295
285 286 286 286 286 286 285 285 285 285 286 287 288 290 292 296 302 310 309 300 306 312 310 311 313 297 305 306 299 294 294 296 301 299 297 297 296 297
284 284 285 285 285 285 284 284 284 284 284 285 286 288 290 293 300 312 312 311 312 312 308 304 308 309 311 307 296 292 293 295 296 295 295 297 301 299
281 283 283 283 283 284 283 282 283 283 283 284 285 286 288 292 301 314 314 314 313 308 308 307 304 303 300 299 295 294 295 295 294 291 290 294 295 296

GFSNE_sfc_thetae_123.txt.gz
Theta_e
314 314 313 312 312 312 311 310 306 302 304 309 309 315 314 314 315 315 315 315 315 314 315 315 318 319 323 324 325 325 326 328 331 335 337 340 342 344
313 313 313 313 313 313 312 311 310 307 303 309 310 313 314 314 315 315 315 314 313 314 315 315 317 317 320 321 321 322 324 325 326 328 332 335 337 339
314 313 313 315 313 313 313 312 311 310 305 308 311 315 315 314 315 315 315 315 315 313 313 313 313 314 316 315 316 318 320 322 323 325 328 330 332 334
313 313 313 313 314 314 311 311 310 311 306 302 307 308 309 313 314 313 313 314 314 313 313 312 311 310 310 311 313 314 316 317 319 322 324 325 328 331
313 312 312 312 312 312 310 309 310 310 309 306 304 307 308 309 310 312 314 315 314 313 312 311 310 310 310 309 310 313 313 312 312 315 318 321 324 327
311 310 311 311 310 309 309 309 308 307 306 305 304 305 306 308 309 308 309 313 311 313 312 310 309 310 310 310 311 313 313 310 309 310 311 312 315 319
308 309 311 309 307 307 307 306 305 304 304 303 303 304 304 304 304 307 306 310 312 313 311 312 312 313 316 316 322 320 315 310 308 308 309 309 309 311
307 308 310 308 308 305 306 306 305 302 302 301 302 302 304 305 306 305 304 304 303 313 310 309 312 312 315 315 316 313 311 309 308 308 308 307 307 308
305 306 306 307 304 305 304 303 304 304 304 303 301 303 303 305 306 304 305 305 305 308 307 306 311 310 314 314 312 310 308 307 306 306 306 306 305 304
302 303 303 302 303 300 300 302 306 307 307 306 306 306 307 307 307 306 305 306 306 308 309 302 311 311 314 317 313 309 307 306 305 304 304 304 303 304
299 300 300 302 298 295 299 300 301 303 304 301 301 301 299 298 300 304 303 301 300 305 310 305 309 311 314 318 322 309 309 305 305 304 304 303 301 302
297 301 300 298 294 293 297 296 294 294 296 299 303 303 305 308 301 304 305 301 301 301 309 307 311 309 310 318 319 315 315 304 302 302 303 303 301 320
298 301 303 294 293 293 293 295 293 293 296 297 299 303 305 308 309 308 305 304 301 301 307 308 307 306 306 305 313 315 315 310 312 308 300 300 303 318
297 298 298 293 292 292 294 291 291 294 295 295 294 296 300 304 306 308 307 305 306 304 309 310 307 307 305 305 309 313 312 313 314 311 309 303 302 303
296 295 293 292 293 295 293 292 292 293 291 290 290 292 296 301 309 308 309 307 306 307 309 311 310 309 307 306 305 310 312 313 313 311 311 312 314 313
293 295 293 292 293 292 296 294 292 291 290 288 289 291 295 298 301 308 307 308 306 306 309 312 311 311 306 308 309 311 313 313 311 311 311 314 314 317
292 292 290 288 289 290 290 291 289 289 287 288 288 289 290 294 295 300 306 306 305 304 306 311 313 313 311 309 309 312 315 312 312 311 311 308 312 315
289 288 286 285 286 289 289 289 289 286 286 286 287 287 287 289 291 294 298 306 304 305 305 308 312 310 307 306 303 313 315 315 312 311 310 307 307 310
286 288 285 286 285 285 288 288 285 285 285 285 285 285 286 287 289 291 296 299 307 307 306 311 313 310 306 307 303 296 306 312 311 310 311 308 305 304
286 285 286 287 287 286 287 287 287 286 284 284 283 284 285 286 287 289 292 296 306 308 309 314 315 312 310 309 303 300 292 308 308 301 297 298 295 296
285 285 286 286 286 286 286 286 286 285 284 283 282 282 284 285 285 289 293 293 297 312 311 312 316 297 308 307 303 295 295 295 302 302 300 301 301 302
284 284 285 285 286 285 285 285 284 285 284 282 281 282 283 284 286 289 293 296 304 315 315 311 311 312 315 305 296 295 295 296 296 295 295 296 306 304
283 283 285 285 285 285 285 284 283 284 283 281 281 281 282 284 288 290 294 300 311 318 316 312 307 307 304 298 295 296 295 294 293 292 292 294 296 297

GFSNE_sfc_thetae_129.txt.gz
Theta_e
324 325 321 320 320 320 319 317 314 309 310 316 315 325 325 325 326 325 324 322 322 319 317 317 317 316 316 317 317 317 318 320 322 323 324 325 328 331
321 323 322 321 320 319 319 318 317 313 308 314 316 323 324 322 323 324 322 321 319 319 319 318 317 316 316 316 316 315 317 317 319 321 320 321 323 327
322 320 319 321 316 317 317 317 316 316 312 314 317 320 320 320 321 322 321 321 319 318 319 318 316 315 314 314 313 314 314 315 315 315 316 317 319 323
319 318 316 316 318 317 316 317 316 315 311 309 312 314 316 319 319 320 319 317 318 318 317 316 314 313 312 312 312 311 311 311 311 312 314 316 318 321
317 316 316 316 315 315 315 314 313 313 312 310 309 312 314 316 316 317 317 317 317 319 316 315 313 313 312 312 311 310 308 308 307 308 309 311 314 318
317 317 315 315 316 314 311 311 310 309 309 308 307 308 309 312 312 311 310 312 312 315 315 313 313 314 312 312 312 312 309 306 306 306 306 306 307 310
315 315 317 315 314 309 308 308 307 306 305 305 305 305 305 306 305 309 307 308 310 312 312 314 315 316 318 316 317 315 311 308 307 307 306 304 304 305
312 314 313 313 311 308 306 306 306 304 304 305 305 304 305 306 306 305 303 302 302 312 310 309 313 312 318 319 314 310 309 308 308 307 306 304 304 304
312 310 308 309 306 304 304 304 307 307 306 307 305 305 304 305 304 301 301 301 303 308 308 305 311 312 317 317 310 307 306 305 305 305 305 306 305 303
308 307 307 306 301 299 301 309 310 311 309 306 305 304 304 304 302 301 301 302 306 308 310 302 309 311 316 316 311 309 307 305 305 305 305 304 302 301
305 306 305 301 295 294 301 306 306 307 304 302 301 299 297 297 298 301 302 302 302 304 309 306 308 311 314 316 316 310 308 305 304 304 304 303 301 301
304 302 294 294 292 292 298 303 299 299 299 304 305 304 303 303 301 305 301 298 302 302 308 306 308 309 306 315 316 316 319 312 306 304 305 304 302 320
299 300 299 292 291 291 292 297 296 296 300 301 301 301 301 301 300 300 299 298 298 303 308 307 304 305 306 309 312 314 315 318 317 312 302 302 301 314
294 296 295 292 291 291 294 291 292 294 299 296 295 296 295 295 296 294 294 298 301 301 310 308 305 306 305 304 305 311 314 317 317 316 315 303 300 302
293 293 293 292 292 295 294 293 292 299 298 295 292 292 293 293 293 291 292 296 299 301 309 309 307 306 305 304 306 307 308 313 316 313 312 314 317 319
291 291 296 294 293 295 298 299 299 298 297 295 292 291 292 290 288 289 289 290 293 298 308 311 311 308 305 309 311 309 308 308 313 312 314 316 318 321
290 299 297 296 295 295 296 297 297 296 295 296 291 289 288 287 286 288 288 289 291 293 299 304 311 312 309 308 308 307 308 309 312 311 313 312 315 318
295 294 293 293 292 293 293 294 295 294 294 294 290 286 285 285 284 286 288 289 289 292 295 300 305 308 304 302 299 301 304 311 311 312 314 310 309 313
292 292 292 292 292 293 293 293 293 294 295 293 286 284 285 284 283 284 286 288 289 291 294 298 308 307 304 301 298 295 296 310 312 307 305 307 307 302
291 290 290 291 292 292 293 293 293 293 293 292 285 284 284 283 282 284 286 287 289 291 294 303 311 311 307 305 303 298 292 299 307 304 301 299 296 296
291 292 292 291 292 292 292 293 293 294 292 290 285 284 283 283 283 285 286 286 288 293 295 300 312 296 306 306 302 296 297 294 296 300 302 304 304 303
292 292 292 292 292 292 292 292 291 292 291 289 287 285 284 284 285 285 287 287 291 295 301 310 317 317 308 303 296 296 297 297 297 295 295 296 305 304
292 292 292 292 292 292 291 290 290 290 289 289 290 287 285 285 286 286 286 288 290 295 304 310 309 306 300 297 295 295 293 293 293 292 291 295 295 296

GFSNE_sfc_thetae_132.txt.gz
Theta_e
323 323 322 320 320 319 317 316 312 307 307 311 312 317 319 320 321 319 318 322 322 320 319 318 318 319 319 319 319 319 318 317 316 317 318 320 322 325
322 322 321 320 318 317 316 315 314 311 308 313 314 316 317 317 319 318 318 321 320 319 319 319 317 317 317 318 317 317 318 317 317 317 317 318 320 320
320 319 317 318 316 317 316 314 313 313 309 311 313 314 313 314 315 316 318 316 317 318 318 317 316 315 315 315 316 316 316 316 316 316 316 316 316 317
316 316 315 315 315 316 314 314 313 312 309 306 309 310 310 311 312 312 313 315 316 318 317 316 314 314 313 313 313 313 312 312 312 313 314 314 315 315
314 314 314 313 313 314 314 311 310 310 309 307 305 308 309 310 309 310 311 312 314 317 315 314 313 312 312 312 312 311 310 309 308 308 310 311 312 313
312 313 313 313 312 311 310 308 308 306 305 304 304 305 306 308 308 306 305 309 307 311 313 312 313 313 312 313 313 314 310 308 306 306 306 306 307 308
309 312 313 313 311 308 305 305 304 303 303 304 304 305 305 305 304 305 303 304 304 306 308 310 311 311 311 313 316 316 311 309 307 305 305 304 303 304
308 310 311 312 307 305 305 305 304 301 301 303 304 303 303 302 302 300 300 298 297 307 306 305 310 308 309 311 312 308 308 307 306 306 305 304 304 303
306 307 306 307 300 299 301 303 306 307 306 304 300 301 300 301 300 298 298 298 298 303 304 303 308 306 309 313 310 308 308 306 305 304 304 304 303 301
305 305 305 303 296 295 297 301 306 306 303 301 301 302 303 302 301 300 299 300 302 305 307 302 307 306 309 311 311 309 306 306 305 304 304 303 301 301
300 298 297 295 293 293 296 297 301 300 301 302 301 299 298 297 299 300 297 295 294 297 305 304 306 306 308 309 314 310 307 307 306 305 304 302 301 300
297 298 296 294 292 292 294 294 295 296 295 299 298 297 299 299 299 298 295 290 289 293 307 303 304 304 302 307 311 311 311 310 306 305 303 303 300 308
294 295 297 294 292 292 292 294 296 294 295 297 297 295 295 294 294 294 293 291 289 290 298 299 303 304 303 303 308 308 310 310 313 315 305 301 300 304
291 293 294 293 292 292 292 294 292 293 297 297 295 293 291 290 291 291 291 291 292 292 295 298 299 304 303 302 301 305 309 312 313 313 314 305 301 302
291 292 292 291 292 293 295 294 295 295 294 293 292 290 290 290 290 289 289 290 291 293 298 301 303 307 305 302 302 304 306 308 311 312 312 313 315 315
293 293 295 294 293 295 296 296 295 295 293 292 290 288 288 288 287 287 286 287 288 292 296 300 302 305 306 305 305 305 309 305 309 311 312 313 317 319
290 296 294 294 293 293 294 294 294 294 292 292 288 286 285 285 285 286 286 286 286 288 290 295 300 303 306 304 305 306 305 304 307 310 312 311 314 317
293 291 291 291 291 291 291 291 292 293 292 291 287 286 285 284 284 285 286 287 287 288 290 293 296 298 302 298 300 298 300 304 310 311 311 309 308 308
291 291 290 290 290 291 291 291 290 292 291 290 288 286 285 285 284 285 287 287 287 288 290 294 296 302 303 301 295 295 292 299 308 304 302 302 304 297
291 290 290 290 291 290 290 290 290 290 288 288 287 287 286 285 284 286 286 286 287 289 293 298 300 307 307 304 300 296 292 295 303 302 299 298 295 296
290 290 291 291 290 291 290 289 289 288 287 286 286 287 286 285 285 287 286 286 287 290 291 295 303 293 305 303 299 295 296 294 295 295 299 302 302 301
290 291 291 291 290 291 289 288 287 286 285 284 285 286 285 286 287 287 286 286 287 289 292 296 308 309 303 299 295 295 295 295 295 295 295 295 301 302
290 291 291 290 290 291 288 286 286 284 283 283 284 285 285 286 289 288 287 287 287 288 290 293 304 301 298 296 293 292 291 291 291 289 290 294 295 295

GFSNE_sfc_thetae_135.txt.gz
Theta_e
314 314 313 313 313 314 313 312 308 303 304 309 309 313 314 314 316 315 315 319 320 320 319 319 319 319 319 320 320 320 321 321 320 319 319 318 319 320
315 312 311 310 310 311 310 312 310 307 304 310 310 311 312 313 315 313 312 319 317 317 319 318 317 317 317 317 318 318 319 319 319 319 318 317 317 318
311 311 310 310 309 309 312 312 312 312 307 308 309 310 308 309 309 310 312 311 311 315 317 316 315 315 314 315 315 315 316 317 317 318 318 318 318 317
309 309 309 312 311 310 312 311 310 309 307 304 307 305 306 308 309 309 310 311 311 313 314 313 313 312 312 312 312 312 312 313 313 315 315 316 317 317
305 306 308 310 308 310 310 308 307 308 306 304 302 305 305 307 308 308 309 309 309 312 311 310 310 311 311 312 311 311 309 308 308 309 311 313 314 315
303 305 308 310 306 305 305 304 304 302 301 302 303 304 306 307 306 302 301 303 303 305 307 308 310 312 312 312 312 312 311 309 307 306 306 306 307 309
302 306 309 309 307 305 303 301 298 298 300 301 301 303 302 300 299 301 299 300 301 303 303 307 306 307 308 310 312 313 310 308 306 306 305 304 303 304
302 304 306 303 301 300 301 301 302 300 301 301 299 297 296 299 300 299 298 297 295 304 302 302 306 306 308 308 309 308 308 307 306 306 305 304 302 302
302 303 305 301 296 296 297 299 302 305 303 298 292 294 296 297 299 297 297 296 296 300 300 298 305 305 308 310 308 307 306 306 305 304 304 304 304 301
297 298 297 295 293 294 294 296 298 299 299 299 298 295 295 296 297 296 296 296 296 296 296 293 303 305 308 308 308 307 306 305 305 304 304 303 301 300
296 297 296 295 294 293 293 293 294 296 299 298 298 297 295 295 296 293 291 289 288 289 292 294 299 303 305 306 308 309 306 305 305 305 305 304 302 300
293 296 298 296 293 292 292 291 291 293 292 292 293 294 294 293 295 292 290 287 286 286 296 290 294 298 299 305 304 307 306 306 305 304 305 304 301 305
290 292 294 294 292 291 292 290 290 293 292 291 292 292 291 290 289 290 290 288 286 286 291 292 292 292 295 301 306 306 304 306 309 310 307 305 300 301
289 291 292 292 291 291 292 292 292 293 291 290 291 288 288 287 288 288 289 289 289 288 290 291 290 292 294 295 300 305 306 307 309 309 311 309 303 300
288 292 293 292 292 292 293 293 292 291 290 288 287 287 288 288 288 288 289 289 290 291 294 295 295 296 298 299 303 304 303 306 310 309 309 311 312 314
290 289 293 293 293 292 291 292 291 291 289 288 288 288 289 288 287 288 286 287 287 290 293 296 296 297 297 300 305 304 306 305 308 307 308 312 315 318
289 288 288 287 288 289 290 290 290 289 287 287 286 287 287 287 287 288 288 288 287 287 289 293 296 298 299 299 301 304 304 302 305 307 310 310 313 315
288 287 287 288 288 288 287 287 288 288 286 285 284 285 286 286 286 287 289 288 287 288 289 291 293 296 301 297 298 295 297 301 305 306 309 308 307 302
285 285 285 286 287 287 286 286 286 286 285 284 283 284 286 286 286 287 288 287 287 288 290 294 295 298 298 301 295 295 292 296 299 304 301 301 300 295
285 285 286 287 287 286 285 285 285 284 282 282 282 284 285 284 285 287 287 286 287 288 289 293 295 296 301 302 298 295 292 293 294 300 300 298 296 296
287 286 286 287 287 286 284 284 283 282 281 280 280 283 284 284 285 288 287 286 286 287 287 289 292 292 304 304 297 294 295 294 294 293 295 301 301 301
286 285 286 286 286 283 282 282 281 280 279 279 279 281 282 284 285 287 286 287 287 287 288 290 294 301 300 297 292 292 292 293 294 294 295 295 299 301
285 284 284 285 284 282 281 280 279 278 278 278 279 280 280 283 286 287 286 288 287 287 288 288 290 296 297 295 292 292 291 290 290 289 291 294 295 295

GFSNE_sfc_thetae_138.txt.gz
Theta_e
312 311 310 310 308 309 310 310 308 302 302 305 305 309 310 311 312 312 310 314 317 316 316 316 317 318 318 318 319 319 319 320 320 321 321 321 320 320
310 308 307 307 307 308 308 308 310 308 303 305 306 307 308 309 311 310 309 314 315 315 315 315 315 315 314 316 316 317 317 318 318 319 320 320 320 320
306 306 306 307 306 307 308 311 310 309 304 305 304 306 305 305 306 307 309 308 310 313 314 313 312 312 312 312 313 314 314 315 316 317 318 319 320 320
302 303 304 309 305 306 307 309 307 307 305 301 303 303 302 305 307 305 307 306 305 308 310 309 309 309 310 310 311 311 311 312 312 313 315 316 318 319
300 301 303 305 302 302 302 304 304 304 302 300 301 304 305 307 302 302 302 302 304 308 307 307 308 309 310 309 309 310 309 308 307 309 310 312 314 315
301 302 306 304 300 300 302 301 300 297 297 300 301 302 303 301 299 299 298 300 299 302 304 306 308 308 308 309 310 311 309 307 306 306 306 306 306 308
302 304 307 305 304 302 300 298 298 298 300 300 299 297 295 294 294 297 297 298 298 299 299 301 302 302 303 308 310 311 309 307 306 306 305 305 304 304
299 301 303 299 298 298 299 300 301 301 297 295 295 294 293 292 292 293 293 291 290 297 297 295 297 296 301 306 308 307 306 306 306 305 305 304 304 303
295 296 298 297 295 295 296 298 299 301 302 296 294 295 294 293 292 290 290 289 290 294 292 291 294 294 299 307 307 306 305 304 304 304 305 302 301 300
297 297 296 295 294 294 293 294 295 296 297 298 295 294 294 294 291 291 290 290 291 292 293 287 293 295 301 304 306 305 304 304 304 304 304 303 301 300
294 297 297 296 295 294 292 291 293 294 298 298 297 296 295 295 293 288 287 286 285 286 290 291 295 292 296 299 305 306 305 303 304 303 303 303 302 302
291 293 295 294 293 292 290 290 287 289 290 291 290 291 291 290 292 289 287 284 284 284 291 287 289 292 289 296 303 304 306 306 303 302 302 303 303 308
288 290 292 293 292 291 292 290 289 291 290 288 288 289 289 289 290 290 289 287 285 285 289 289 288 288 290 293 298 299 302 306 307 306 304 303 303 303
286 288 289 292 291 291 291 291 291 291 287 286 287 287 287 288 289 290 290 290 289 288 289 289 287 288 288 288 290 298 302 307 305 305 309 306 304 303
288 292 292 291 291 290 292 291 291 287 285 284 284 285 287 289 290 290 290 291 292 292 293 293 292 292 292 291 292 295 300 306 306 306 308 306 308 312
289 287 291 290 291 291 289 289 288 286 284 283 283 284 287 288 288 289 288 290 289 290 293 295 295 295 293 294 295 296 300 304 307 305 306 308 312 315
287 286 285 284 286 285 285 286 285 284 283 283 282 283 285 286 286 288 289 289 287 288 289 292 295 297 297 295 294 299 299 299 302 304 307 310 308 306
285 283 284 284 284 283 283 283 283 283 282 281 281 283 283 284 284 287 289 288 287 288 288 291 292 295 299 297 297 293 296 297 300 302 304 307 304 299
283 284 283 284 284 283 282 282 281 281 281 280 280 281 283 283 284 285 287 287 287 288 289 290 292 293 291 291 296 295 291 293 294 302 300 300 297 295
284 284 284 284 283 282 280 280 280 279 279 279 279 281 282 281 283 284 286 285 286 287 288 290 290 290 289 291 296 295 292 292 292 292 299 299 297 297
284 284 284 283 282 281 280 279 278 277 278 278 278 280 280 281 282 284 284 285 286 287 286 286 289 289 297 301 294 294 293 294 294 292 293 299 301 298
283 283 282 282 280 279 279 278 277 277 277 277 279 279 280 281 282 282 282 284 285 286 287 288 290 293 298 294 291 290 290 291 294 295 295 295 298 299
282 281 280 280 279 279 278 277 276 276 277 279 279 278 279 279 282 282 281 284 285 285 286 286 288 291 294 295 291 291 290 289 290 290 291 294 295 295

GFSNE_sfc_thetae_141.txt.gz
Theta_e
308 307 307 307 306 305 305 305 302 299 301 303 305 308 307 308 309 310 308 312 315 315 315 315 315 315 314 313 314 315 315 316 318 318 319 320 321 322
306 305 305 305 305 305 305 305 304 306 302 304 303 304 305 307 308 308 307 311 311 311 310 311 311 311 311 311 312 313 314 315 315 316 317 318 319 320
301 302 303 304 303 304 305 304 305 307 303 304 303 304 302 302 305 304 304 305 304 308 309 309 309 309 310 310 311 312 311 313 314 315 315 316 317 319
299 300 302 307 301 301 301 300 301 304 302 299 299 301 302 303 302 299 302 304 303 306 308 308 308 308 308 309 309 308 309 310 311 312 313 313 316 317
299 300 302 301 298 298 298 298 299 301 300 298 299 300 301 298 296 297 297 298 301 305 305 306 306 307 308 306 307 307 307 307 307 308 310 311 312 314
301 303 304 301 298 296 297 298 299 298 300 300 299 299 295 294 293 292 291 294 294 297 300 303 304 304 304 305 305 306 308 307 306 306 306 306 306 308
299 301 301 302 301 299 298 297 297 298 299 294 293 293 293 292 291 292 291 290 291 293 294 295 294 295 296 300 302 306 308 307 306 305 305 304 303 304
295 295 301 298 297 298 298 299 298 295 295 294 289 291 290 292 292 291 289 286 286 291 291 291 293 292 294 296 301 303 305 305 305 305 304 304 303 302
293 294 297 296 296 295 296 297 297 298 299 295 292 290 289 291 291 287 286 286 286 290 290 288 291 291 296 300 303 303 303 304 303 303 303 303 302 300
293 297 296 294 294 293 293 291 291 292 293 293 290 290 290 291 288 288 288 287 288 290 291 285 290 292 294 294 299 302 303 303 303 303 303 302 300 300
289 292 293 293 293 293 290 290 288 288 294 295 293 294 293 293 292 290 287 285 284 286 289 289 290 289 292 293 299 302 301 302 303 303 303 302 301 300
287 289 294 292 292 292 288 287 285 286 287 286 287 289 290 289 293 291 289 285 285 284 290 286 287 289 285 290 295 297 299 300 301 302 302 302 301 305
286 287 289 292 291 291 291 288 287 287 286 284 285 286 287 288 290 291 291 289 286 286 290 290 287 287 287 288 292 294 295 298 301 303 303 302 301 303
285 286 288 290 290 290 289 290 289 287 284 283 282 282 283 285 288 290 291 291 291 290 291 291 287 287 287 286 287 293 295 298 301 306 305 305 303 302
287 291 291 290 289 287 289 289 286 283 282 280 280 281 283 286 288 289 290 291 293 293 295 294 292 292 290 289 289 291 293 297 300 303 306 305 307 309
287 287 289 288 288 286 285 284 283 282 281 280 280 281 283 284 285 286 287 289 289 290 294 295 295 294 292 293 293 292 295 295 301 302 303 305 309 307
285 283 284 283 282 281 281 281 281 281 280 279 279 280 282 282 283 285 287 288 286 287 288 292 294 295 296 296 294 296 296 296 298 299 300 304 305 301
284 281 282 282 280 279 279 278 279 279 279 279 279 280 281 280 281 284 286 286 285 287 287 289 290 291 293 296 296 293 294 293 294 295 301 302 301 298
282 283 282 281 280 279 278 277 276 277 278 278 279 280 280 280 281 282 283 284 284 286 287 289 288 288 286 286 295 295 291 292 292 294 299 298 297 295
281 282 281 280 280 279 278 277 277 277 277 278 279 280 279 279 280 281 282 282 283 285 286 288 287 287 285 287 291 296 292 291 291 291 293 298 298 297
281 281 281 280 279 278 277 277 276 276 277 278 279 279 279 279 280 281 281 282 283 284 284 285 287 288 293 297 293 291 292 294 294 292 293 295 300 297
280 280 279 278 277 277 276 276 275 276 276 278 278 279 279 279 279 280 280 280 281 283 284 286 289 290 292 294 291 290 290 291 295 295 295 295 297 296
279 279 278 277 277 277 276 275 276 276 276 278 278 278 278 278 280 279 279 280 281 282 283 284 286 289 288 290 291 290 290 289 290 291 292 294 295 295

GFSNE_sfc_thetae_144.txt.gz
Theta_e
310 310 310 310 310 309 309 308 306 302 304 309 307 313 311 311 312 313 312 312 311 313 312 312 312 311 311 311 312 313 314 315 316 317 318 319 320 321
305 306 307 308 309 309 309 309 308 306 302 307 308 309 310 309 310 311 309 308 307 309 309 310 310 311 310 309 310 311 312 313 313 314 316 317 318 319
304 304 306 308 306 305 305 305 305 305 301 303 306 308 307 307 308 305 304 305 306 306 307 309 309 309 308 309 309 309 309 310 310 312 314 315 316 317
304 305 306 305 303 302 302 302 301 302 300 299 303 305 305 307 305 302 301 300 301 302 304 305 305 305 307 307 308 308 306 307 308 309 311 312 314 315
305 305 303 303 301 299 300 299 299 301 301 299 299 303 302 302 300 300 300 300 299 301 300 301 302 303 302 302 303 303 303 304 305 307 309 310 311 312
304 305 303 301 299 298 298 298 299 298 299 299 297 296 296 299 298 296 294 297 295 296 298 300 299 299 299 300 301 303 304 304 305 305 306 306 306 307
300 303 302 301 300 299 298 298 298 296 296 295 293 293 293 293 292 293 292 292 293 297 295 295 296 297 298 299 301 302 303 303 303 304 305 304 303 303
297 298 300 299 298 298 298 299 298 296 294 292 290 289 291 292 292 291 290 288 286 296 291 291 295 295 297 300 300 301 300 301 301 302 304 303 303 302
297 297 297 296 296 296 296 296 294 294 294 294 289 289 290 291 291 289 289 288 287 289 290 289 294 295 298 298 297 298 300 301 302 303 303 303 302 301
294 295 294 294 295 295 293 291 290 290 292 292 290 290 292 293 292 291 290 289 290 291 292 286 294 294 295 296 298 300 300 299 301 300 301 301 300 299
292 295 294 292 293 292 290 288 288 288 291 291 290 290 291 291 292 292 288 287 286 288 290 289 290 289 294 293 296 299 298 299 299 299 300 300 300 300
291 291 293 292 291 291 289 287 285 286 287 287 287 288 289 289 291 291 289 286 286 286 290 288 288 289 286 293 295 297 298 298 298 299 300 300 300 309
289 288 289 290 289 289 289 287 285 287 286 285 285 285 286 287 289 289 289 288 286 286 291 291 289 289 288 288 292 294 296 300 300 300 301 301 301 302
288 289 289 288 288 288 287 287 286 285 285 283 283 283 283 285 287 288 288 289 291 291 293 293 291 290 289 288 288 293 296 297 299 300 302 303 302 302
291 290 289 287 286 285 286 285 284 284 283 281 281 281 283 286 287 287 289 290 291 292 294 294 293 292 292 290 290 291 292 297 298 300 302 303 304 306
288 288 287 286 284 283 283 283 282 283 282 280 281 283 284 285 284 286 285 287 287 288 292 293 293 292 290 292 293 293 295 294 298 298 298 299 304 304
287 286 284 283 282 281 281 281 281 281 281 281 281 282 283 283 283 286 286 285 284 284 286 290 292 292 293 294 294 295 294 294 295 294 295 298 303 299
285 283 282 282 280 280 279 279 280 280 280 281 281 282 281 281 281 284 285 284 283 284 285 287 288 288 291 295 297 293 293 292 293 294 296 300 299 297
284 282 281 281 280 280 279 279 278 279 280 281 281 281 280 281 281 282 283 283 282 284 285 287 287 286 284 284 293 296 291 291 292 292 294 300 299 298
283 282 281 281 280 279 279 278 278 279 279 280 280 280 280 280 280 281 281 281 281 283 283 285 286 285 283 284 288 294 293 291 291 291 293 296 297 298
283 281 281 281 280 279 279 278 278 279 279 279 280 280 280 279 280 281 281 281 282 282 282 282 285 286 289 292 292 291 293 294 295 292 293 295 301 298
283 282 281 281 280 279 279 279 279 279 279 279 279 280 279 280 280 280 280 280 282 282 283 284 287 288 288 288 288 291 291 293 295 296 295 295 296 293
283 282 281 281 281 280 279 279 279 279 279 279 280 280 279 279 280 280 280 282 282 282 283 283 284 287 287 287 288 291 292 292 292 292 293 295 295 295

GFSNE_sfc_thetae_147.txt.gz
Theta_e
319 318 317 317 317 317 316 314 309 303 304 310 310 317 315 315 316 316 316 312 309 309 309 310 310 309 310 311 311 311 312 313 313 315 317 317 319 321
314 315 315 316 315 315 313 312 311 306 303 308 309 312 314 314 314 313 312 308 309 309 307 306 307 307 306 307 307 309 310 311 310 311 313 313 315 318
314 314 313 313 312 311 310 310 308 307 303 306 309 311 312 311 311 310 308 308 307 307 305 305 305 304 304 305 306 307 307 307 310 308 310 312 314 315
312 310 308 309 310 309 307 308 306 307 305 302 306 307 308 307 306 304 305 306 307 307 305 304 303 303 304 303 302 302 302 303 304 305 307 309 313 314
308 306 307 308 307 306 306 305 305 304 305 302 302 305 304 303 301 304 305 305 305 305 305 304 304 303 301 301 301 302 302 303 304 305 307 309 311 312
307 308 306 305 304 304 303 304 303 302 302 301 300 298 297 299 301 301 299 303 301 303 305 304 303 302 303 302 303 303 303 303 303 303 304 305 305 307
307 306 304 303 300 301 301 301 300 297 296 295 295 294 294 295 297 299 298 299 299 303 301 300 301 304 306 306 306 304 300 300 300 301 302 302 302 303
303 303 303 301 301 299 298 297 295 294 294 293 293 293 295 295 298 296 296 293 289 300 296 295 302 303 305 306 302 300 299 300 301 302 302 302 302 302
301 301 299 299 299 299 298 297 296 293 293 294 293 293 294 296 295 294 294 292 291 293 294 292 300 300 303 301 301 300 300 300 299 301 300 300 300 300
300 299 298 297 294 294 295 295 295 296 295 294 293 293 294 294 295 293 292 291 293 294 294 290 297 295 297 302 300 298 299 298 299 299 299 299 299 298
297 295 296 294 291 290 294 293 294 294 294 293 292 291 290 291 291 293 290 287 286 289 293 291 293 293 294 296 299 300 299 300 299 299 299 299 299 298
295 294 290 290 289 289 293 291 290 290 292 292 293 294 293 294 294 295 292 286 285 286 291 289 291 291 289 298 298 299 298 299 299 300 300 300 299 307
292 291 290 287 287 287 288 288 287 289 291 291 291 292 292 293 294 295 294 290 286 286 291 291 291 291 290 290 295 297 299 298 302 305 301 300 300 301
291 290 289 287 287 287 287 285 287 289 290 290 289 289 290 290 291 293 295 293 292 290 292 293 290 289 288 288 288 295 296 298 299 300 302 301 301 300
291 289 288 287 287 288 287 286 288 289 288 288 287 289 290 291 292 293 295 296 294 295 293 292 291 290 288 287 288 291 293 298 301 299 299 299 299 302
291 291 289 288 288 288 288 288 288 288 287 287 288 289 291 290 290 291 291 292 290 291 292 292 292 291 288 290 291 292 296 293 296 296 296 297 302 300
292 291 289 288 288 288 288 288 287 287 286 287 288 288 288 288 288 291 291 291 288 287 287 289 291 292 292 292 291 295 294 292 294 294 295 295 302 299
290 288 287 287 286 286 286 286 287 285 286 286 287 287 286 286 287 289 290 289 288 287 286 287 288 288 292 294 297 293 293 292 293 294 295 296 300 299
288 288 287 286 286 286 286 286 285 286 286 286 286 286 286 286 287 288 288 288 287 288 286 287 286 286 285 283 291 297 291 292 292 293 295 299 298 296
288 287 286 286 286 286 286 285 286 286 286 286 286 286 286 286 287 287 287 286 286 288 287 286 285 285 283 284 285 290 293 293 292 292 294 296 298 297
288 287 287 286 286 286 286 286 286 286 286 286 286 286 286 286 287 287 287 284 286 288 286 284 285 286 288 290 288 291 295 295 296 293 294 295 301 296
288 287 287 287 286 286 286 286 286 286 286 286 286 286 286 286 286 287 286 287 288 288 287 288 288 288 288 287 286 289 293 295 296 296 295 294 295 290
288 287 287 286 286 286 286 285 285 285 285 285 286 286 285 285 286 287 288 288 288 289 288 286 286 287 286 286 286 288 293 294 294 294 294 295 294 294